FW9122 Weather Reports


time (UTC)temp
F
wind
direction
speed
knots
gust
knots
rain 1hr
in
rain 24hr
in
rain mn
in
humidity
%
barometer
mb
20260507205221 46 184 0.0 1.7 0.00 0.02 0.02 93 1015.0
20260507205122 46 184 0.0 0.0 0.00 0.02 0.02 93 1015.0
20260507205038 46 184 0.0 0.0 0.00 0.02 0.02 93 1015.1
20260507204820 47 184 0.0 0.0 0.00 0.02 0.02 93 1015.1
20260507204723 47 184 0.0 0.0 0.00 0.02 0.02 93 1015.1
20260507204619 46 184 0.0 0.0 0.00 0.02 0.02 93 1014.9
20260507204530 47 184 0.0 1.7 0.00 0.02 0.02 93 1015.1
20260507204420 46 184 0.0 1.7 0.00 0.02 0.02 93 1015.2
20260507204321 46 184 0.0 1.7 0.00 0.02 0.02 93 1015.2
20260507204220 46 184 0.0 1.7 0.00 0.02 0.02 93 1015.1
20260507204122 47 184 0.0 1.7 0.00 0.02 0.02 93 1015.0
20260507204038 47 184 0.0 1.7 0.00 0.02 0.02 93 1015.0
20260507203919 47 184 0.0 1.7 0.00 0.02 0.02 93 1015.1
20260507203820 47 184 0.0 1.7 0.00 0.02 0.02 93 1015.0
20260507203723 47 184 0.0 1.7 0.00 0.02 0.02 93 1015.0
20260507203620 47 184 0.0 1.7 0.00 0.02 0.02 93 1015.0
20260507203528 47 184 0.0 1.7 0.00 0.02 0.02 93 1015.0
20260507203427 47 184 0.0 1.7 0.00 0.02 0.02 93 1015.0
20260507203325 47 184 0.0 0.9 0.00 0.02 0.02 93 1015.0
20260507203221 47 184 0.0 0.9 0.00 0.02 0.02 93 1015.1
20260507203123 47 184 0.0 0.9 0.00 0.02 0.02 93 1015.0
20260507203038 47 184 0.0 0.9 0.00 0.02 0.02 93 1015.0
20260507202920 47 184 0.0 0.9 0.00 0.02 0.02 93 1015.0
20260507202821 47 184 0.0 0.9 0.00 0.02 0.02 93 1015.0
20260507202723 47 184 0.0 0.9 0.00 0.02 0.02 93 1015.0
20260507202620 47 184 0.0 0.9 0.00 0.02 0.02 93 1015.0
20260507202529 47 184 0.0 0.9 0.00 0.02 0.02 92 1014.9
20260507202420 47 184 0.0 0.9 0.00 0.02 0.02 93 1015.0
20260507202321 48 184 0.0 0.0 0.00 0.02 0.02 93 1014.8
20260507202122 48 184 0.0 0.9 0.00 0.02 0.02 93 1015.0
20260507202039 48 184 0.0 1.7 0.00 0.02 0.02 93 1014.8
20260507201920 48 184 0.0 1.7 0.00 0.02 0.02 93 1014.7
20260507201621 48 184 0.0 1.7 0.00 0.02 0.02 93 1014.8
20260507201532 48 184 0.0 1.7 0.00 0.02 0.02 93 1014.8
20260507201421 48 184 0.0 1.7 0.00 0.02 0.02 93 1014.8
20260507201322 48 184 0.0 1.7 0.00 0.02 0.02 92 1014.7
20260507201220 48 184 0.0 1.7 0.00 0.02 0.02 92 1014.8
20260507201123 48 184 0.0 1.7 0.00 0.02 0.02 92 1014.8
20260507201039 48 184 0.0 1.7 0.00 0.02 0.02 92 1014.7
20260507200921 48 184 0.0 0.9 0.00 0.02 0.02 92 1014.6
20260507200820 48 184 0.0 0.9 0.00 0.02 0.02 92 1014.6
20260507200531 48 184 0.0 1.7 0.00 0.02 0.02 92 1014.7
20260507200321 48 184 0.0 1.7 0.00 0.02 0.02 92 1014.6
20260507200220 48 184 0.0 1.7 0.00 0.02 0.02 92 1014.6
20260507200127 48 184 0.0 1.7 0.00 0.02 0.02 92 1014.7
20260507200041 49 184 0.0 1.7 0.00 0.02 0.02 92 1014.7
20260507195920 49 184 0.0 1.7 0.00 0.02 0.02 92 1014.7
20260507195823 49 184 0.0 1.7 0.00 0.02 0.02 92 1014.6
20260507195721 49 184 0.0 1.7 0.00 0.02 0.02 92 1014.6
20260507195619 49 184 0.0 0.9 0.00 0.02 0.02 92 1014.7
20260507195528 49 184 0.0 0.9 0.00 0.02 0.02 92 1014.6
20260507195423 49 184 0.0 0.9 0.00 0.02 0.02 92 1014.6
20260507195322 49 184 0.0 0.9 0.00 0.02 0.02 92 1014.5
20260507195220 49 184 0.0 0.9 0.00 0.02 0.02 92 1014.6
20260507195120 49 184 0.0 0.9 0.00 0.02 0.02 92 1014.5
20260507195039 49 184 0.0 0.9 0.00 0.02 0.02 92 1014.5
20260507194923 49 184 0.0 0.9 0.00 0.02 0.02 92 1014.6
20260507194820 49 184 0.0 0.9 0.00 0.02 0.02 92 1014.5
20260507194620 49 184 0.0 0.9 0.00 0.02 0.02 92 1014.4
20260507194535 49 184 0.0 0.9 0.00 0.02 0.02 92 1014.4
20260507194422 49 184 0.0 0.9 0.00 0.02 0.02 92 1014.5
20260507194321 49 184 0.0 0.9 0.00 0.02 0.02 92 1014.4
20260507194220 49 184 0.0 0.9 0.00 0.02 0.02 92 1014.5
20260507194125 49 184 0.0 0.9 0.00 0.02 0.02 92 1014.5
20260507194041 49 184 0.0 0.9 0.00 0.02 0.02 91 1014.4
20260507193919 49 184 0.0 0.9 0.00 0.02 0.02 91 1014.4
20260507193823 49 184 0.0 0.9 0.00 0.02 0.02 91 1014.4
20260507193720 50 184 0.0 0.9 0.00 0.02 0.02 91 1014.5
20260507193620 50 184 0.0 0.9 0.00 0.02 0.02 91 1014.4
20260507193528 50 184 0.0 0.9 0.00 0.02 0.02 91 1014.4
20260507193321 50 184 0.0 0.9 0.00 0.02 0.02 91 1014.3
20260507193220 50 184 0.0 0.0 0.00 0.02 0.02 91 1014.4
20260507193123 50 184 0.0 0.0 0.00 0.02 0.02 91 1014.3
20260507193041 50 184 0.0 0.0 0.00 0.02 0.02 91 1014.3
20260507192920 50 184 0.0 1.7 0.00 0.02 0.02 91 1014.3
20260507192821 50 184 0.9 1.7 0.00 0.02 0.02 91 1014.3
20260507192719 50 184 0.9 2.6 0.00 0.02 0.02 91 1014.2
20260507192622 50 184 0.9 2.6 0.00 0.02 0.02 91 1014.3
20260507192420 50 184 0.9 2.6 0.00 0.02 0.02 91 1014.2
20260507192320 51 184 0.9 2.6 0.00 0.02 0.02 91 1014.1
20260507192120 51 184 0.9 2.6 0.00 0.02 0.02 91 1014.1
20260507192039 51 184 0.9 2.6 0.00 0.02 0.02 91 1014.0
20260507191919 51 184 0.9 2.6 0.00 0.02 0.02 90 1014.0
20260507191720 51 184 0.0 1.7 0.00 0.02 0.02 91 1014.0
20260507191621 51 184 0.0 1.7 0.00 0.02 0.02 91 1013.9
20260507191529 51 184 0.0 1.7 0.00 0.02 0.02 91 1013.9
20260507191320 52 184 0.0 0.9 0.00 0.02 0.02 91 1013.9
20260507191222 52 184 0.0 0.9 0.00 0.02 0.02 90 1013.9
20260507191038 52 184 0.0 0.9 0.00 0.02 0.02 90 1013.9
20260507190920 52 184 0.0 0.9 0.00 0.02 0.02 90 1014.0
20260507190720 52 184 0.0 0.9 0.00 0.02 0.02 90 1013.9
20260507190622 52 184 0.0 0.9 0.00 0.02 0.02 90 1013.9
20260507190529 52 184 0.0 0.9 0.00 0.02 0.02 90 1013.7
20260507190420 52 184 0.0 0.9 0.00 0.02 0.02 90 1013.8
20260507190320 52 184 0.0 0.9 0.00 0.02 0.02 90 1013.8
20260507190123 53 184 0.0 0.0 0.00 0.02 0.02 91 1013.8
20260507190043 53 184 0.0 0.0 0.00 0.02 0.02 90 1013.8
20260507185822 53 184 0.0 0.0 0.00 0.02 0.02 90 1013.7
20260507185722 53 184 0.0 0.9 0.00 0.02 0.02 90 1013.7
20260507185620 53 184 0.0 1.7 0.00 0.02 0.02 90 1013.7
20260507185530 53 184 0.0 1.7 0.00 0.02 0.02 90 1013.7
20260507185322 53 184 0.9 1.7 0.00 0.02 0.02 90 1013.7
20260507185223 53 184 0.9 1.7 0.00 0.02 0.02 90 1013.6
20260507185120 53 184 0.9 1.7 0.00 0.02 0.02 90 1013.6
20260507185038 53 184 0.9 1.7 0.00 0.02 0.02 90 1013.7
20260507184926 53 184 0.9 1.7 0.00 0.02 0.02 90 1013.6
20260507184722 53 184 0.9 1.7 0.00 0.02 0.02 90 1013.6
20260507184620 54 184 0.9 1.7 0.00 0.02 0.02 90 1013.5
20260507184420 54 184 0.9 1.7 0.00 0.02 0.02 90 1013.5
20260507184222 54 184 0.9 1.7 0.00 0.02 0.02 90 1013.5
20260507184037 54 184 0.9 1.7 0.00 0.02 0.02 90 1013.5
20260507183923 54 184 0.9 1.7 0.00 0.02 0.02 90 1013.5
20260507183820 54 184 0.9 1.7 0.00 0.02 0.02 89 1013.4
20260507183723 54 184 0.9 1.7 0.00 0.02 0.02 90 1013.3
20260507183620 54 184 0.9 1.7 0.00 0.02 0.02 89 1013.4
20260507183420 55 184 0.0 2.6 0.00 0.02 0.02 89 1013.4
20260507183323 55 184 0.0 2.6 0.00 0.02 0.02 89 1013.5
20260507183121 55 184 0.9 2.6 0.00 0.02 0.02 89 1013.4
20260507183036 55 184 0.9 2.6 0.00 0.02 0.02 89 1013.3
20260507182931 55 184 0.9 2.6 0.00 0.02 0.02 89 1013.4
20260507182721 55 184 0.9 2.6 0.00 0.02 0.02 89 1013.4
20260507182619 55 184 0.9 2.6 0.00 0.02 0.02 89 1013.3
20260507182529 55 184 0.9 2.6 0.00 0.02 0.02 89 1013.5
20260507182426 55 184 0.9 2.6 0.00 0.02 0.02 89 1013.4
20260507182322 55 184 0.9 2.6 0.00 0.02 0.02 88 1013.4
20260507182222 56 184 0.9 2.6 0.00 0.02 0.02 89 1013.4
20260507182121 56 184 0.9 2.6 0.00 0.02 0.02 89 1013.3
20260507181923 56 178 0.9 2.6 0.00 0.02 0.02 89 1013.3
20260507181820 56 178 0.0 2.6 0.00 0.02 0.02 89 1013.3
20260507181720 56 178 0.0 1.7 0.00 0.02 0.02 89 1013.3
20260507181627 56 178 0.0 1.7 0.00 0.02 0.02 89 1013.3
20260507181421 56 178 0.0 1.7 0.00 0.02 0.02 89 1013.4
20260507181322 56 178 0.0 1.7 0.00 0.02 0.02 89 1013.4
20260507181222 56 178 0.0 1.7 0.00 0.02 0.02 89 1013.3
20260507181120 56 178 0.0 1.7 0.00 0.02 0.02 89 1013.3
20260507181037 56 178 0.9 1.7 0.00 0.02 0.02 88 1013.3
20260507180924 57 178 0.9 2.6 0.00 0.02 0.02 88 1013.5
20260507180821 57 178 0.9 2.6 0.00 0.02 0.02 88 1013.4
20260507180722 57 178 0.9 2.6 0.00 0.02 0.02 88 1013.3
20260507180620 57 178 0.9 2.6 0.00 0.02 0.02 88 1013.3
20260507180529 57 178 0.9 2.6 0.00 0.02 0.02 88 1013.4
20260507180421 57 178 0.9 2.6 0.00 0.02 0.02 88 1013.4
20260507180322 57 178 1.7 2.6 0.00 0.02 0.02 88 1013.3
20260507180221 57 178 1.7 2.6 0.00 0.02 0.02 88 1013.3
20260507180040 57 178 1.7 2.6 0.00 0.02 0.02 88 1013.4
20260507175923 57 178 1.7 2.6 0.00 0.02 0.02 88 1013.3
20260507175820 57 178 0.9 2.6 0.00 0.02 0.02 88 1013.4
20260507175620 57 178 0.9 2.6 0.00 0.02 0.02 88 1013.3
20260507175529 58 178 0.9 2.6 0.00 0.02 0.02 88 1013.2
20260507175422 58 178 1.7 2.6 0.00 0.02 0.02 87 1013.2
20260507175321 58 177 1.7 2.6 0.00 0.02 0.02 87 1013.3
20260507175119 58 177 1.7 2.6 0.00 0.02 0.02 87 1013.3
20260507174819 58 177 1.7 2.6 0.00 0.02 0.02 87 1013.1
20260507174722 58 177 1.7 2.6 0.00 0.02 0.02 87 1013.3
20260507174620 59 177 1.7 2.6 0.00 0.02 0.02 87 1013.2
20260507174530 59 177 1.7 2.6 0.00 0.02 0.02 86 1013.2
20260507174422 59 166 1.7 3.5 0.00 0.02 0.02 86 1013.3
20260507174322 59 165 0.9 3.5 0.00 0.02 0.02 86 1013.2
20260507174120 59 165 0.9 2.6 0.00 0.02 0.02 85 1013.0
20260507174037 59 165 0.9 3.5 0.00 0.02 0.02 85 1013.1
20260507173922 59 165 0.9 1.7 0.00 0.02 0.02 85 1013.1
20260507173820 59 165 0.9 2.6 0.00 0.02 0.02 85 1013.1
20260507173723 60 165 0.9 2.6 0.00 0.02 0.02 85 1013.0
20260507173620 60 165 0.9 2.6 0.00 0.02 0.02 84 1013.0
20260507173419 60 165 0.9 2.6 0.00 0.02 0.02 84 1012.9
20260507173322 60 165 0.9 2.6 0.00 0.02 0.02 84 1012.8
20260507173221 60 165 0.9 2.6 0.00 0.02 0.02 83 1012.9
20260507173120 60 165 0.9 2.6 0.00 0.02 0.02 83 1012.9
20260507173037 60 165 0.9 2.6 0.00 0.02 0.02 84 1013.0
20260507172821 60 165 0.9 1.7 0.00 0.02 0.02 83 1012.8
20260507172721 60 165 0.9 1.7 0.00 0.02 0.02 83 1012.8
20260507172620 60 165 0.9 1.7 0.00 0.02 0.02 82 1012.8
20260507172529 60 165 0.9 1.7 0.00 0.02 0.02 82 1012.8
20260507172419 60 165 0.9 1.7 0.00 0.02 0.02 82 1012.8
20260507172321 60 165 0.9 1.7 0.00 0.02 0.02 82 1012.8
20260507172120 61 165 0.9 1.7 0.00 0.02 0.02 83 1012.9
20260507172039 61 165 0.9 1.7 0.00 0.02 0.02 82 1012.7
20260507171922 61 165 0.9 1.7 0.00 0.02 0.02 82 1012.8
20260507171819 61 165 0.9 1.7 0.00 0.02 0.02 82 1012.8
20260507171721 61 165 0.9 2.6 0.00 0.02 0.02 81 1012.8
20260507171619 61 165 0.9 2.6 0.00 0.02 0.02 80 1012.8
20260507171529 62 165 0.9 2.6 0.00 0.02 0.02 80 1012.7
20260507171419 62 165 0.9 2.6 0.00 0.02 0.02 81 1012.7
20260507171322 62 161 0.9 2.6 0.00 0.02 0.02 79 1012.8
20260507171221 62 161 0.9 2.6 0.00 0.02 0.02 79 1012.7
20260507171120 62 161 0.9 2.6 0.00 0.02 0.02 78 1012.9
20260507171036 62 161 0.9 2.6 0.00 0.02 0.02 78 1012.8
20260507170922 63 161 0.9 3.5 0.00 0.02 0.02 79 1012.7
20260507170822 63 67 0.9 2.6 0.00 0.02 0.02 79 1012.7
20260507170620 64 66 0.9 2.6 0.00 0.02 0.02 79 1012.8
20260507170529 64 66 0.9 2.6 0.00 0.02 0.02 77 1012.7
20260507170421 64 66 0.9 2.6 0.00 0.02 0.02 77 1012.8
20260507170320 64 66 0.0 2.6 0.00 0.02 0.02 78 1012.8
20260507170221 64 66 0.0 2.6 0.00 0.02 0.02 78 1012.8
20260507170129 64 247 0.0 1.7 0.00 0.02 0.02 77 1012.7
20260507165921 64 241 0.0 1.7 0.00 0.02 0.02 78 1012.8
20260507165820 64 241 0.0 1.7 0.00 0.02 0.02 75 1012.7
20260507165721 64 241 0.0 1.7 0.00 0.02 0.02 75 1012.6
20260507165623 64 241 0.0 1.7 0.00 0.02 0.02 79 1012.7
20260507165528 64 241 0.0 1.7 0.00 0.02 0.02 78 1012.7
20260507165420 64 241 0.0 1.7 0.00 0.02 0.02 79 1012.7
20260507165322 64 241 0.0 1.7 0.00 0.02 0.02 79 1012.7
20260507164921 64 241 0.0 1.7 0.00 0.02 0.02 78 1012.6
20260507164819 64 241 0.0 1.7 0.00 0.02 0.02 75 1012.6
20260507164721 64 241 0.0 1.7 0.00 0.02 0.02 77 1012.6
20260507164621 64 241 0.0 1.7 0.00 0.02 0.02 79 1012.7
20260507164528 64 241 0.0 1.7 0.00 0.02 0.02 80 1012.6
20260507164420 63 241 0.0 1.7 0.00 0.02 0.02 79 1012.6
20260507164219 63 241 0.0 1.7 0.00 0.02 0.02 79 1012.6
20260507164120 63 241 0.0 1.7 0.00 0.02 0.02 81 1012.5
20260507164037 63 241 0.0 0.9 0.00 0.02 0.02 81 1012.6
20260507163922 63 241 0.0 0.0 0.00 0.02 0.02 82 1012.5
20260507163419 62 241 0.0 0.9 0.00 0.02 0.02 84 1012.6
20260507163321 62 241 0.9 1.7 0.00 0.02 0.02 84 1012.5
20260507163220 61 241 0.9 1.7 0.00 0.02 0.02 84 1012.6
20260507163121 61 241 0.9 1.7 0.00 0.02 0.02 84 1012.6
20260507163005 61 241 0.9 2.6 0.00 0.02 0.02 84 1012.7
20260507162803 60 241 0.9 2.6 0.00 0.02 0.02 84 1012.7
20260507162706 60 241 0.9 2.6 0.00 0.02 0.02 85 1012.7
20260507162603 60 241 0.9 2.6 0.00 0.02 0.02 84 1012.7
20260507162503 60 241 0.0 2.6 0.00 0.02 0.02 84 1012.7
20260507162405 60 241 0.0 2.6 0.00 0.02 0.02 84 1012.7
20260507162307 60 246 0.0 2.6 0.00 0.02 0.02 84 1012.7
20260507162011 61 276 0.0 0.0 0.00 0.02 0.02 84 1012.8
20260507161904 61 276 0.0 0.0 0.00 0.02 0.02 84 1012.8
20260507161804 61 294 0.0 0.0 0.00 0.02 0.02 83 1012.8
20260507161704 61 303 0.0 0.0 0.00 0.02 0.02 83 1012.9
20260507161603 62 303 0.0 0.0 0.00 0.02 0.02 83 1012.8
20260507161405 62 303 0.0 0.0 0.00 0.02 0.02 82 1012.9
20260507161303 62 303 0.0 0.0 0.00 0.02 0.02 82 1012.8
20260507161102 62 303 0.0 0.0 0.00 0.02 0.02 82 1012.9
20260507161009 63 303 0.0 0.0 0.00 0.02 0.02 82 1012.9
20260507160903 63 303 0.0 0.0 0.00 0.02 0.02 81 1012.9
20260507160805 63 303 0.0 0.0 0.00 0.02 0.02 81 1012.8
20260507160704 63 303 0.0 0.0 0.00 0.02 0.02 81 1012.8
20260507160604 63 304 0.0 0.0 0.00 0.02 0.02 80 1012.9
20260507160503 64 304 0.0 0.0 0.00 0.02 0.02 79 1012.8
20260507160405 64 304 0.0 0.0 0.00 0.02 0.02 80 1012.8
20260507160303 64 304 0.0 0.0 0.00 0.02 0.02 78 1012.8
20260507160016 64 304 0.0 0.0 0.00 0.02 0.02 74 1012.8
20260507155706 64 304 0.0 0.0 0.00 0.02 0.02 78 1012.8
20260507155603 64 304 0.0 0.0 0.00 0.02 0.02 80 1012.6
20260507155503 64 304 0.0 0.0 0.00 0.02 0.02 80 1012.7
20260507155405 64 304 0.0 0.0 0.00 0.02 0.02 81 1012.7
20260507155306 64 304 0.0 0.0 0.00 0.02 0.02 82 1012.7
20260507155203 64 304 0.0 0.0 0.00 0.02 0.02 83 1012.6
20260507155103 64 304 0.0 0.0 0.00 0.02 0.02 82 1012.8
20260507155005 63 304 0.0 0.0 0.00 0.02 0.02 81 1012.7
20260507154904 63 304 0.0 0.0 0.00 0.02 0.02 81 1012.7
20260507154804 63 304 0.0 0.0 0.00 0.02 0.02 80 1012.7
20260507154704 63 304 0.0 0.0 0.00 0.02 0.02 80 1012.8
20260507154603 64 304 0.0 0.0 0.00 0.02 0.02 80 1012.8
20260507154503 64 304 0.0 1.7 0.00 0.02 0.02 79 1012.8
20260507154405 64 304 0.9 1.7 0.00 0.02 0.02 77 1012.8
20260507154303 64 38 0.9 2.6 0.00 0.02 0.02 77 1012.8
20260507154204 64 38 0.9 2.6 0.00 0.02 0.02 78 1012.8
20260507154103 63 38 0.9 2.6 0.00 0.02 0.02 77 1012.7
20260507154009 64 38 0.9 2.6 0.00 0.02 0.02 79 1012.7
20260507153903 64 38 0.9 2.6 0.00 0.02 0.02 76 1012.9
20260507153804 64 38 0.9 2.6 0.00 0.02 0.02 75 1012.8
20260507153604 64 38 0.9 2.6 0.00 0.02 0.02 76 1012.8
20260507153503 64 39 0.9 2.6 0.00 0.02 0.02 75 1012.8
20260507153405 64 40 0.9 2.6 0.00 0.02 0.02 77 1012.8
20260507153303 64 44 0.9 2.6 0.00 0.02 0.02 76 1012.8
20260507153203 63 25 0.9 2.6 0.00 0.02 0.02 77 1012.8
20260507153007 63 16 0.0 2.6 0.00 0.02 0.02 78 1012.7
20260507152903 63 82 0.0 2.6 0.00 0.02 0.02 79 1012.7
20260507152803 63 198 0.0 0.9 0.00 0.02 0.02 80 1012.8
20260507152705 63 198 0.0 0.9 0.00 0.02 0.02 80 1012.9
20260507152503 63 198 0.0 0.0 0.00 0.02 0.02 80 1012.8
20260507152306 63 198 0.0 0.0 0.00 0.02 0.02 83 1012.8
20260507152104 62 198 0.0 0.9 0.00 0.02 0.02 80 1012.9
20260507152006 62 198 0.0 1.7 0.00 0.02 0.02 81 1012.9
20260507151903 62 198 0.0 1.7 0.00 0.02 0.02 80 1012.8
20260507151802 62 198 0.0 1.7 0.00 0.02 0.02 80 1012.9
20260507151704 62 198 0.0 1.7 0.00 0.02 0.02 80 1013.0
20260507151604 62 198 0.9 1.7 0.00 0.02 0.02 81 1013.0
20260507151403 62 198 0.9 2.6 0.00 0.02 0.02 81 1012.9
20260507151305 62 198 0.9 2.6 0.00 0.02 0.02 80 1012.9
20260507151203 62 198 0.9 2.6 0.00 0.02 0.02 80 1012.9
20260507151124 62 198 0.9 2.6 0.00 0.02 0.02 80 1012.9
20260507151037 62 198 0.9 2.6 0.00 0.02 0.02 80 1012.9
20260507150922 62 198 0.9 2.6 0.00 0.02 0.02 80 1012.9
20260507150819 62 198 0.9 2.6 0.00 0.02 0.02 81 1012.9
20260507150719 62 198 0.9 2.6 0.00 0.02 0.02 80 1013.0
20260507150621 61 198 0.9 2.6 0.00 0.02 0.02 80 1013.0
20260507150529 61 198 0.9 2.6 0.00 0.02 0.02 80 1013.0
20260507150420 61 198 0.9 2.6 0.00 0.02 0.02 80 1013.1
20260507150320 61 198 0.9 2.6 0.00 0.02 0.02 80 1013.0
20260507150222 61 198 0.9 2.6 0.00 0.02 0.02 81 1013.1
20260507150120 61 198 0.9 2.6 0.00 0.02 0.02 82 1013.2
20260507150039 61 198 0.9 2.6 0.00 0.02 0.02 81 1013.1
20260507145921 61 198 0.9 2.6 0.00 0.02 0.02 81 1013.2
20260507145818 61 198 0.9 2.6 0.00 0.02 0.02 81 1013.2
20260507145719 61 198 0.9 2.6 0.00 0.02 0.02 83 1013.2
20260507145620 61 198 0.9 2.6 0.00 0.02 0.02 82 1013.2
20260507145528 61 198 1.7 2.6 0.00 0.02 0.02 82 1013.2
20260507145418 60 205 1.7 2.6 0.00 0.02 0.02 82 1013.1
20260507145219 61 205 1.7 2.6 0.00 0.02 0.02 81 1013.1
20260507145120 61 205 1.7 2.6 0.00 0.02 0.02 81 1013.2
20260507145037 61 205 0.9 2.6 0.00 0.02 0.02 81 1013.1
20260507144919 61 205 0.9 2.6 0.00 0.02 0.02 82 1013.2
20260507144818 61 205 0.9 2.6 0.00 0.02 0.02 83 1013.2
20260507144618 61 206 0.9 2.6 0.00 0.02 0.02 83 1013.2
20260507144528 61 206 0.9 2.6 0.00 0.02 0.02 83 1013.3
20260507144418 61 232 0.9 1.7 0.00 0.02 0.02 82 1013.2
20260507144218 61 236 0.9 1.7 0.00 0.02 0.02 82 1013.3
20260507144120 61 236 0.9 1.7 0.00 0.02 0.02 82 1013.2
20260507144037 61 236 0.9 1.7 0.00 0.02 0.02 83 1013.1
20260507143918 61 236 0.9 1.7 0.00 0.02 0.02 82 1013.2
20260507143819 61 236 0.9 1.7 0.00 0.02 0.02 82 1013.2
20260507143721 61 236 0.9 1.7 0.00 0.02 0.02 82 1013.2
20260507143618 61 236 0.9 1.7 0.00 0.02 0.02 84 1013.2
20260507143528 61 236 0.9 1.7 0.00 0.02 0.02 85 1013.3
20260507143418 61 236 0.9 1.7 0.00 0.02 0.02 84 1013.2
20260507143320 61 236 0.9 1.7 0.00 0.02 0.02 84 1013.2
20260507143219 61 236 0.9 1.7 0.00 0.02 0.02 83 1013.2
20260507143122 61 236 0.9 1.7 0.00 0.02 0.02 82 1013.2
20260507143038 61 237 0.9 1.7 0.00 0.02 0.02 83 1013.2
20260507142921 61 240 0.0 1.7 0.00 0.02 0.02 83 1013.2
20260507142820 61 246 0.0 1.7 0.00 0.02 0.02 82 1013.2
20260507142722 61 251 0.0 1.7 0.00 0.02 0.02 82 1013.2
20260507142620 61 251 0.0 1.7 0.00 0.02 0.02 81 1013.3
20260507142529 61 251 0.0 1.7 0.00 0.02 0.02 80 1013.2
20260507142419 61 251 0.0 1.7 0.00 0.02 0.02 79 1013.3
20260507142321 61 251 0.0 1.7 0.00 0.02 0.02 79 1013.2
20260507142220 61 251 0.0 1.7 0.00 0.02 0.02 80 1013.3
20260507142038 62 251 0.0 0.0 0.00 0.02 0.02 81 1013.4
20260507141920 61 251 0.0 0.0 0.00 0.02 0.02 80 1013.4
20260507141820 61 251 0.0 0.9 0.00 0.02 0.02 79 1013.3
20260507141722 61 251 0.0 1.7 0.00 0.02 0.02 79 1013.3
20260507141619 61 251 0.0 1.7 0.00 0.02 0.02 80 1013.3
20260507141530 61 251 0.0 1.7 0.00 0.02 0.02 80 1013.3
20260507141419 61 251 0.0 1.7 0.00 0.02 0.02 80 1013.3
20260507141321 61 251 0.9 1.7 0.00 0.02 0.02 80 1013.3
20260507141220 61 251 0.9 1.7 0.00 0.02 0.02 79 1013.3
20260507141122 61 251 0.9 1.7 0.00 0.02 0.02 79 1013.2
20260507140919 61 251 0.9 2.6 0.00 0.02 0.02 80 1013.3
20260507140819 61 221 0.9 2.6 0.00 0.02 0.02 81 1013.5
20260507140722 61 219 0.9 2.6 0.00 0.02 0.02 80 1013.4
20260507140619 61 219 0.9 2.6 0.00 0.02 0.02 80 1013.4
20260507140529 61 219 0.9 2.6 0.00 0.02 0.02 79 1013.4
20260507140420 61 219 0.9 2.6 0.00 0.02 0.02 80 1013.3
20260507140219 62 236 0.9 2.6 0.00 0.02 0.02 80 1013.4
20260507140128 62 236 0.0 2.6 0.00 0.02 0.02 80 1013.4
20260507135920 61 22 0.0 1.7 0.00 0.02 0.02 79 1013.4
20260507135821 61 22 0.0 1.7 0.00 0.02 0.02 79 1013.4
20260507135620 61 355 0.0 0.0 0.00 0.02 0.02 80 1013.5
20260507135527 61 355 0.0 0.0 0.00 0.02 0.02 81 1013.5
20260507135422 61 355 0.0 0.0 0.00 0.02 0.02 80 1013.5
20260507135320 61 355 0.0 0.0 0.00 0.02 0.02 80 1013.4
20260507135219 61 355 0.0 0.0 0.00 0.02 0.02 79 1013.3
20260507134920 61 355 0.0 0.9 0.00 0.02 0.02 80 1013.5
20260507134721 61 355 0.0 0.9 0.00 0.02 0.02 80 1013.4
20260507134620 61 355 0.0 0.9 0.00 0.02 0.02 82 1013.4
20260507134527 61 355 0.0 1.7 0.00 0.02 0.02 81 1013.5
20260507134321 61 355 0.0 1.7 0.00 0.02 0.02 82 1013.5
20260507134220 61 355 0.0 1.7 0.00 0.02 0.02 82 1013.4
20260507134120 61 355 0.0 1.7 0.00 0.02 0.02 80 1013.4
20260507134038 61 355 0.0 1.7 0.00 0.02 0.02 80 1013.4
20260507133819 61 355 0.0 1.7 0.00 0.02 0.02 80 1013.5
20260507133721 61 355 0.0 1.7 0.00 0.02 0.02 80 1013.5
20260507133621 61 355 0.0 0.9 0.00 0.02 0.02 80 1013.7
20260507133529 61 355 0.0 0.9 0.00 0.02 0.02 81 1013.6
20260507133421 61 355 0.0 0.9 0.00 0.02 0.02 80 1013.6
20260507133320 61 355 0.0 0.9 0.00 0.02 0.02 79 1013.6
20260507133219 61 355 0.0 0.9 0.00 0.02 0.02 80 1013.7
20260507132920 61 355 0.9 3.5 0.00 0.02 0.02 80 1013.6
20260507132822 61 355 0.9 3.5 0.01 0.02 0.02 80 1013.6
20260507132719 61 355 0.9 3.5 0.01 0.02 0.02 80 1013.6
20260507132621 60 355 0.9 3.5 0.01 0.02 0.02 80 1013.7
20260507132527 60 355 0.9 3.5 0.02 0.02 0.02 80 1013.7
20260507132421 60 355 0.9 3.5 0.02 0.02 0.02 80 1013.7
20260507132320 60 355 0.9 3.5 0.02 0.02 0.02 81 1013.7
20260507132224 60 355 0.9 3.5 0.02 0.02 0.02 82 1013.7
20260507132121 60 22 0.9 3.5 0.02 0.02 0.02 82 1013.6
20260507132037 60 46 0.9 3.5 0.02 0.02 0.02 82 1013.7
20260507131920 60 27 0.9 3.5 0.02 0.02 0.02 82 1013.8
20260507131822 60 27 1.7 3.5 0.02 0.02 0.02 82 1013.7
20260507131621 60 351 1.7 3.5 0.02 0.02 0.02 84 1013.7
20260507131421 60 338 0.9 3.5 0.02 0.02 0.02 84 1013.7
20260507131320 60 83 1.7 3.5 0.02 0.02 0.02 83 1013.8
20260507131221 59 83 1.7 3.5 0.02 0.02 0.02 83 1013.8
20260507131121 59 55 0.9 3.5 0.02 0.02 0.02 85 1013.7
20260507131042 59 43 0.9 3.5 0.02 0.02 0.02 85 1013.7
20260507130920 59 47 0.9 4.3 0.02 0.02 0.02 84 1013.7
20260507130822 59 49 0.9 4.3 0.02 0.02 0.02 84 1013.7
20260507130720 59 139 0.9 4.3 0.02 0.02 0.02 84 1013.7
20260507130621 59 139 0.9 4.3 0.02 0.02 0.02 84 1013.7
20260507130527 59 139 0.9 4.3 0.02 0.02 0.02 85 1013.7
20260507130421 59 137 0.9 4.3 0.02 0.02 0.02 85 1013.9
20260507130319 59 136 0.9 4.3 0.02 0.02 0.02 85 1013.7
20260507130222 59 150 0.9 4.3 0.02 0.02 0.02 87 1013.8
20260507130040 59 150 0.9 4.3 0.02 0.02 0.02 88 1013.8
20260507125820 58 125 0.0 1.7 0.02 0.02 0.02 88 1013.9
20260507125619 58 120 0.0 1.7 0.02 0.02 0.02 88 1013.7
20260507125530 58 120 0.0 0.0 0.02 0.02 0.02 88 1013.8
20260507125418 58 120 0.0 0.0 0.02 0.02 0.02 89 1013.8
20260507125320 58 120 0.0 0.9 0.02 0.02 0.02 89 1013.8
20260507125218 58 120 0.0 1.7 0.02 0.02 0.02 89 1013.8
20260507125120 58 120 0.0 1.7 0.02 0.02 0.02 89 1013.7
20260507125041 58 120 0.0 1.7 0.02 0.02 0.02 89 1013.9
20260507124922 58 120 0.0 1.7 0.02 0.02 0.02 89 1013.9
20260507124820 58 120 0.0 1.7 0.02 0.02 0.02 89 1013.9
20260507124718 58 120 0.0 1.7 0.02 0.02 0.02 88 1014.0
20260507124619 58 120 0.0 1.7 0.02 0.02 0.02 89 1013.9
20260507124529 58 120 0.0 1.7 0.02 0.02 0.02 89 1013.9
20260507124419 58 120 0.0 1.7 0.02 0.02 0.02 89 1014.0
20260507124218 58 119 0.0 1.7 0.02 0.02 0.02 87 1013.9
20260507124120 58 119 0.9 1.7 0.02 0.02 0.02 87 1014.0
20260507124042 58 119 0.9 1.7 0.02 0.02 0.02 87 1013.8
20260507123920 58 119 0.9 2.6 0.02 0.02 0.02 87 1013.8
20260507123820 58 153 0.9 3.5 0.02 0.02 0.02 87 1013.8
20260507123719 58 153 0.9 3.5 0.02 0.02 0.02 87 1013.9
20260507123619 58 153 0.9 3.5 0.02 0.02 0.02 87 1013.9
20260507123529 58 153 0.9 3.5 0.02 0.02 0.02 88 1013.9
20260507123419 58 183 1.7 3.5 0.02 0.02 0.02 87 1014.0
20260507123219 58 184 1.7 3.5 0.02 0.02 0.02 86 1014.0
20260507123120 58 184 1.7 3.5 0.02 0.02 0.02 85 1014.0
20260507123035 58 183 1.7 3.5 0.02 0.02 0.02 85 1014.0
20260507122920 59 183 1.7 3.5 0.02 0.02 0.02 86 1014.0
20260507122820 59 182 0.9 3.5 0.01 0.01 0.01 86 1014.0
20260507122718 59 182 0.9 3.5 0.01 0.01 0.01 85 1014.0
20260507122529 59 183 0.9 3.5 0.00 0.00 0.00 85 1014.0
20260507122418 59 186 0.9 3.5 0.00 0.00 0.00 84 1014.0
20260507122218 59 194 0.0 2.6 0.00 0.00 0.00 83 1013.9
20260507122120 59 234 0.0 2.6 0.00 0.00 0.00 83 1013.9
20260507122036 59 236 0.0 2.6 0.00 0.00 0.00 83 1014.0
20260507121921 59 296 0.9 2.6 0.00 0.00 0.00 82 1013.8
20260507121820 59 296 0.9 4.3 0.00 0.00 0.00 82 1013.9
20260507121718 59 296 0.9 4.3 0.00 0.00 0.00 82 1014.0
20260507121619 59 297 0.9 4.3 0.00 0.00 0.00 82 1013.8
20260507121529 59 80 0.9 4.3 0.00 0.00 0.00 82 1013.8
20260507121319 59 80 1.7 4.3 0.00 0.00 0.00 81 1013.8
20260507121221 59 82 1.7 4.3 0.00 0.00 0.00 81 1013.8
20260507121120 59 82 1.7 4.3 0.00 0.00 0.00 82 1013.9
20260507121039 59 82 2.6 4.3 0.00 0.00 0.00 82 1013.9
20260507120921 59 88 2.6 4.3 0.00 0.00 0.00 81 1013.8
20260507120821 59 84 2.6 7.0 0.00 0.00 0.00 81 1013.9
20260507120719 59 71 2.6 7.0 0.00 0.00 0.00 82 1013.8
20260507120619 59 98 3.5 7.0 0.00 0.00 0.00 82 1013.8
20260507120419 59 62 4.3 9.6 0.00 0.00 0.00 82 1014.0
20260507120219 59 52 5.2 9.6 0.00 0.00 0.00 81 1013.8
20260507120039 59 39 5.2 9.6 0.00 0.00 0.00 82 1014.0
20260507115920 59 48 5.2 9.6 0.00 0.00 0.00 82 1014.0
20260507115720 59 62 6.1 9.6 0.00 0.00 0.00 81 1013.9
20260507115619 59 46 6.1 9.6 0.00 0.00 0.00 81 1013.9
20260507115531 59 49 5.2 9.6 0.00 0.00 0.00 81 1013.9
20260507115420 59 41 5.2 10.4 0.00 0.00 0.00 81 1013.9
20260507115322 60 51 5.2 10.4 0.00 0.00 0.00 80 1014.0
20260507115220 60 72 4.3 10.4 0.00 0.00 0.00 80 1013.9
20260507115118 60 67 4.3 10.4 0.00 0.00 0.00 80 1014.0
20260507115039 60 61 4.3 10.4 0.00 0.00 0.00 80 1014.0
20260507114921 60 55 3.5 10.4 0.00 0.00 0.00 79 1013.9
20260507114818 60 62 3.5 10.4 0.00 0.00 0.00 79 1014.0
20260507114720 60 59 3.5 10.4 0.00 0.00 0.00 79 1014.1
20260507114619 60 30 2.6 9.6 0.00 0.00 0.00 80 1014.0
20260507114527 60 28 2.6 5.2 0.00 0.00 0.00 79 1014.0
20260507114320 60 327 3.5 6.1 0.00 0.00 0.00 79 1013.8
20260507114220 60 333 3.5 6.1 0.00 0.00 0.00 79 1013.8
20260507114119 60 65 3.5 6.1 0.00 0.00 0.00 80 1014.0
20260507114036 60 49 3.5 6.1 0.00 0.00 0.00 79 1013.9
20260507113921 60 24 3.5 6.1 0.00 0.00 0.00 79 1014.0
20260507113819 60 22 3.5 6.1 0.00 0.00 0.00 79 1014.1
20260507113720 60 28 3.5 6.1 0.00 0.00 0.00 78 1014.0
20260507113528 60 53 2.6 7.0 0.00 0.00 0.00 78 1014.1
20260507113321 61 54 2.6 7.0 0.00 0.00 0.00 79 1014.0
20260507113220 61 47 2.6 7.0 0.00 0.00 0.00 80 1014.1
20260507113119 61 16 3.5 7.0 0.00 0.00 0.00 79 1014.0
20260507113036 60 360 3.5 7.0 0.00 0.00 0.00 78 1014.1
20260507112921 61 355 3.5 7.0 0.00 0.00 0.00 79 1014.0
20260507112818 61 20 3.5 7.0 0.00 0.00 0.00 79 1014.0
20260507112720 61 15 2.6 7.0 0.00 0.00 0.00 78 1014.1
20260507112618 61 40 2.6 7.0 0.00 0.00 0.00 79 1014.0
20260507112528 61 30 2.6 7.0 0.00 0.00 0.00 78 1014.0
20260507112321 61 32 1.7 7.0 0.00 0.00 0.00 78 1013.9
20260507112118 61 47 1.7 4.3 0.00 0.00 0.00 78 1013.9
20260507112036 61 360 1.7 4.3 0.00 0.00 0.00 78 1014.0
20260507111921 61 54 1.7 3.5 0.00 0.00 0.00 78 1014.0
20260507111802 61 5 0.9 3.5 0.00 0.00 0.00 78 1014.1
20260507111703 61 58 0.9 3.5 0.00 0.00 0.00 78 1014.0
20260507111602 61 91 1.7 3.5 0.00 0.00 0.00 78 1014.1
20260507111506 61 92 1.7 4.3 0.00 0.00 0.00 78 1014.0
20260507111402 61 262 1.7 5.2 0.00 0.00 0.00 78 1014.0
20260507111320 61 265 1.7 5.2 0.00 0.00 0.00 77 1014.0
20260507111219 61 263 1.7 5.2 0.00 0.00 0.00 77 1014.2
20260507111121 61 259 1.7 5.2 0.00 0.00 0.00 77 1014.0
20260507111037 61 279 1.7 5.2 0.00 0.00 0.00 78 1014.0
20260507110819 61 30 1.7 5.2 0.00 0.00 0.00 78 1014.1
20260507110720 61 31 2.6 5.2 0.00 0.00 0.00 78 1014.0
20260507110619 61 36 1.7 5.2 0.00 0.00 0.00 78 1014.0
20260507110528 61 35 1.7 4.3 0.00 0.00 0.00 78 1014.0
20260507110303 61 61 1.7 3.5 0.00 0.00 0.00 77 1014.0
20260507110203 61 69 1.7 3.5 0.00 0.00 0.00 77 1014.1
20260507110031 61 5 1.7 3.5 0.00 0.00 0.00 77 1014.1
20260507105921 61 5 1.7 5.2 0.00 0.00 0.00 77 1014.1
20260507105818 61 47 1.7 5.2 0.00 0.00 0.00 77 1014.1
20260507105718 61 22 1.7 5.2 0.00 0.00 0.00 78 1014.1
20260507105618 61 42 1.7 5.2 0.00 0.00 0.00 77 1014.1
20260507105529 61 42 1.7 5.2 0.00 0.00 0.00 77 1014.1
20260507105418 61 42 1.7 5.2 0.00 0.00 0.00 77 1014.1
20260507105319 61 28 1.7 5.2 0.00 0.00 0.00 77 1014.0
20260507105120 61 246 1.7 5.2 0.00 0.00 0.00 77 1014.1
20260507105036 61 343 1.7 5.2 0.00 0.00 0.00 77 1014.1
20260507104819 61 50 1.7 5.2 0.00 0.00 0.00 76 1014.0
20260507104620 61 27 2.6 5.2 0.00 0.00 0.00 77 1014.1
20260507104527 61 273 2.6 7.0 0.00 0.00 0.00 76 1014.0
20260507104419 61 313 2.6 7.0 0.00 0.00 0.00 76 1014.1
20260507104321 61 267 2.6 7.0 0.00 0.00 0.00 75 1014.0
20260507104218 61 11 2.6 7.0 0.00 0.00 0.00 75 1014.0
20260507104039 61 334 2.6 7.0 0.00 0.00 0.00 75 1014.1
20260507103920 61 26 2.6 7.0 0.00 0.00 0.00 75 1014.1
20260507103818 61 19 2.6 7.0 0.00 0.00 0.00 75 1014.0
20260507103619 62 39 2.6 5.2 0.00 0.00 0.00 73 1014.0
20260507103527 62 42 1.7 5.2 0.00 0.00 0.00 75 1014.1
20260507103419 62 267 1.7 5.2 0.00 0.00 0.00 74 1014.0
20260507103321 62 269 2.6 5.2 0.00 0.00 0.00 73 1014.0
20260507103218 62 302 2.6 5.2 0.00 0.00 0.00 73 1014.0
20260507103120 62 309 1.7 5.2 0.00 0.00 0.00 73 1014.1
20260507103036 62 347 1.7 5.2 0.00 0.00 0.00 72 1014.0
20260507102920 62 34 2.6 5.2 0.00 0.00 0.00 71 1014.0
20260507102819 62 17 2.6 5.2 0.00 0.00 0.00 72 1013.9
20260507102721 62 351 2.6 5.2 0.00 0.00 0.00 72 1014.1
20260507102620 63 341 1.7 7.8 0.00 0.00 0.00 73 1014.1
20260507102527 63 61 1.7 7.8 0.00 0.00 0.00 72 1014.0
20260507102321 63 355 2.6 7.8 0.00 0.00 0.00 72 1014.0
20260507102218 63 302 2.6 7.8 0.00 0.00 0.00 72 1014.1
20260507102120 63 320 2.6 7.8 0.00 0.00 0.00 72 1014.0
20260507101619 63 62 2.6 5.2 0.00 0.00 0.00 74 1013.9
20260507101321 63 44 2.6 5.2 0.00 0.00 0.00 70 1014.1
20260507101202 63 45 2.6 5.2 0.00 0.00 0.00 71 1014.0
20260507101101 63 75 1.7 5.2 0.00 0.00 0.00 73 1014.0
20260507100904 63 41 1.7 5.2 0.00 0.00 0.00 72 1014.0
20260507100801 63 61 1.7 5.2 0.00 0.00 0.00 71 1014.0
20260507100701 63 56 0.9 4.3 0.00 0.00 0.00 71 1014.0
20260507100602 63 66 0.9 3.5 0.00 0.00 0.00 73 1014.0
20260507100504 63 138 0.9 2.6 0.00 0.00 0.00 71 1014.0
20260507100402 62 138 0.9 2.6 0.00 0.00 0.00 71 1014.0
20260507100302 62 138 0.9 2.6 0.00 0.00 0.00 72 1014.0
20260507100006 62 138 0.9 2.6 0.00 0.00 0.00 70 1014.0
20260507095804 62 105 0.0 2.6 0.00 0.00 0.00 70 1014.2
20260507095702 63 111 0.0 1.7 0.00 0.00 0.00 72 1014.2
20260507095602 62 112 0.0 0.9 0.00 0.00 0.00 71 1014.1
20260507095305 62 112 0.9 2.6 0.00 0.00 0.00 72 1014.1
20260507095201 62 112 0.9 2.6 0.00 0.00 0.00 72 1014.1
20260507095002 62 112 0.9 2.6 0.00 0.00 0.00 74 1014.1
20260507094902 62 112 1.7 3.5 0.00 0.00 0.00 75 1014.1
20260507094802 62 112 1.7 4.3 0.00 0.00 0.00 74 1014.0
20260507094401 62 113 2.6 4.3 0.00 0.00 0.00 74 1014.1
20260507094304 62 46 2.6 5.2 0.00 0.00 0.00 74 1014.0
20260507094202 62 43 3.5 7.0 0.00 0.00 0.00 73 1014.0
20260507094101 62 46 3.5 7.0 0.00 0.00 0.00 72 1014.0
20260507094002 62 86 2.6 7.0 0.00 0.00 0.00 73 1014.0
20260507093904 62 84 2.6 7.0 0.00 0.00 0.00 71 1014.1
20260507093802 62 95 2.6 7.0 0.00 0.00 0.00 71 1014.1
20260507093702 62 92 2.6 7.0 0.00 0.00 0.00 71 1014.1
20260507093602 62 75 2.6 7.0 0.00 0.00 0.00 70 1014.1
20260507093505 62 84 1.7 7.0 0.00 0.00 0.00 73 1014.0
20260507093402 62 67 1.7 7.0 0.00 0.00 0.00 73 1014.1
20260507093301 62 61 1.7 7.0 0.00 0.00 0.00 73 1014.0
20260507093204 62 54 1.7 7.0 0.00 0.00 0.00 72 1014.1
20260507093103 62 74 1.7 4.3 0.00 0.00 0.00 72 1014.1
20260507093004 62 148 0.9 4.3 0.00 0.00 0.00 72 1014.0
20260507092901 62 163 0.9 4.3 0.00 0.00 0.00 71 1014.1
20260507092804 62 147 0.9 4.3 0.00 0.00 0.00 72 1014.0
20260507092701 62 111 0.9 4.3 0.00 0.00 0.00 71 1014.1
20260507092602 62 61 0.9 4.3 0.00 0.00 0.00 71 1014.1
20260507092502 62 21 0.9 4.3 0.00 0.00 0.00 71 1014.1
20260507092404 62 34 0.9 4.3 0.00 0.00 0.00 73 1014.1
20260507092302 62 40 0.9 4.3 0.00 0.00 0.00 73 1014.1
20260507092202 62 355 0.9 3.5 0.00 0.00 0.00 72 1014.0
20260507092103 62 229 0.9 2.6 0.00 0.00 0.00 72 1014.1
20260507092002 61 229 0.9 2.6 0.00 0.00 0.00 71 1014.1
20260507091602 61 233 0.9 2.6 0.00 0.00 0.00 72 1014.1
20260507091419 61 233 0.9 2.6 0.00 0.00 0.00 73 1014.1
20260507091320 61 233 0.9 2.6 0.00 0.00 0.00 72 1014.0
20260507091219 61 261 0.9 2.6 0.00 0.00 0.00 74 1014.1
20260507091121 61 161 0.9 1.7 0.00 0.00 0.00 74 1014.1
20260507091039 61 89 0.9 4.3 0.00 0.00 0.00 74 1014.0
20260507090819 61 89 0.9 4.3 0.00 0.00 0.00 72 1014.0
20260507090721 61 89 1.7 4.3 0.00 0.00 0.00 73 1014.0
20260507090619 61 89 1.7 4.3 0.00 0.00 0.00 72 1014.0
20260507090528 61 89 1.7 5.2 0.00 0.00 0.00 72 1014.1
20260507090418 61 30 1.7 5.2 0.00 0.00 0.00 72 1014.1
20260507090319 61 23 1.7 5.2 0.00 0.00 0.00 72 1014.0
20260507090218 61 22 1.7 5.2 0.00 0.00 0.00 74 1014.1
20260507090041 61 5 1.7 5.2 0.00 0.00 0.00 73 1014.0
20260507085918 61 9 1.7 5.2 0.00 0.00 0.00 73 1014.0
20260507085820 61 9 1.7 5.2 0.00 0.00 0.00 73 1014.0
20260507085720 61 38 1.7 5.2 0.00 0.00 0.00 73 1014.0
20260507085619 61 38 1.7 3.5 0.00 0.00 0.00 74 1014.1
20260507085527 61 38 1.7 4.3 0.00 0.00 0.00 73 1013.9
20260507085421 60 40 1.7 4.3 0.00 0.00 0.00 75 1014.0
20260507085318 61 21 1.7 4.3 0.00 0.00 0.00 75 1014.1
20260507085220 60 17 1.7 4.3 0.00 0.00 0.00 75 1013.9
20260507085119 60 17 1.7 4.3 0.00 0.00 0.00 75 1014.1
20260507085037 60 17 1.7 4.3 0.00 0.00 0.00 74 1014.0
20260507084918 60 355 1.7 4.3 0.00 0.00 0.00 74 1014.0
20260507084820 60 355 1.7 4.3 0.00 0.00 0.00 74 1014.2
20260507084720 60 321 1.7 4.3 0.00 0.00 0.00 74 1014.0
20260507084618 60 27 1.7 5.2 0.00 0.00 0.00 74 1014.1
20260507084526 60 25 0.9 5.2 0.00 0.00 0.00 74 1014.1
20260507084318 61 14 0.9 5.2 0.00 0.00 0.00 74 1014.1
20260507084220 60 15 0.9 5.2 0.00 0.00 0.00 75 1014.0
20260507084118 60 36 0.9 5.2 0.00 0.00 0.00 75 1014.1
20260507084037 60 37 0.9 5.2 0.00 0.00 0.00 74 1014.0
20260507083920 60 37 0.9 5.2 0.00 0.00 0.00 74 1014.0
20260507083820 60 46 0.9 5.2 0.00 0.00 0.00 74 1014.1
20260507083720 60 5 0.9 2.6 0.00 0.00 0.00 75 1014.1
20260507083619 60 350 0.9 2.6 0.00 0.00 0.00 74 1014.0
20260507083528 60 258 0.9 2.6 0.00 0.00 0.00 74 1013.9
20260507083318 60 262 0.9 2.6 0.00 0.00 0.00 74 1013.9
20260507083218 60 267 0.9 2.6 0.00 0.00 0.00 73 1013.8
20260507083122 60 267 0.9 2.6 0.00 0.00 0.00 73 1013.9
20260507082918 60 333 0.9 2.6 0.00 0.00 0.00 74 1013.9
20260507082820 60 332 0.9 2.6 0.00 0.00 0.00 75 1014.0
20260507082721 60 329 0.9 2.6 0.00 0.00 0.00 74 1014.0
20260507082618 60 355 1.7 2.6 0.00 0.00 0.00 74 1014.0
20260507082526 60 355 1.7 2.6 0.00 0.00 0.00 73 1013.9
20260507082421 60 355 1.7 4.3 0.00 0.00 0.00 74 1013.8
20260507082318 60 355 1.7 4.3 0.00 0.00 0.00 74 1013.8
20260507082118 60 13 1.7 4.3 0.00 0.00 0.00 74 1013.9
20260507082037 60 340 1.7 4.3 0.00 0.00 0.00 74 1013.9
20260507081719 60 308 2.6 5.2 0.00 0.00 0.00 74 1013.9
20260507081618 61 272 2.6 5.2 0.00 0.00 0.00 74 1013.8
20260507081526 61 300 1.7 5.2 0.00 0.00 0.00 74 1013.9
20260507081421 61 217 2.6 5.2 0.00 0.00 0.00 74 1013.8
20260507081319 61 229 1.7 5.2 0.00 0.00 0.00 74 1013.8
20260507081220 60 321 2.6 5.2 0.00 0.00 0.00 73 1013.9
20260507081118 61 340 2.6 5.2 0.00 0.00 0.00 74 1013.9
20260507081037 61 342 2.6 5.2 0.00 0.00 0.00 75 1013.9
20260507080919 60 121 2.6 5.2 0.00 0.00 0.00 74 1013.8
20260507080820 60 70 2.6 5.2 0.00 0.00 0.00 75 1013.9
20260507080720 60 60 2.6 5.2 0.00 0.00 0.00 75 1013.9
20260507080618 60 58 2.6 5.2 0.00 0.00 0.00 74 1013.8
20260507080526 60 61 2.6 5.2 0.00 0.00 0.00 74 1013.9
20260507080218 60 41 3.5 4.3 0.00 0.00 0.00 75 1013.7
20260507080121 60 59 3.5 4.3 0.00 0.00 0.00 76 1013.8
20260507080042 60 64 3.5 4.3 0.00 0.00 0.00 76 1013.7
20260507075918 60 58 3.5 5.2 0.00 0.11 0.00 76 1013.8
20260507075722 60 360 3.5 5.2 0.00 0.11 0.00 75 1013.8
20260507075618 60 64 3.5 5.2 0.00 0.11 0.00 76 1013.9
20260507075419 60 29 2.6 7.0 0.00 0.11 0.00 76 1013.8
20260507075320 60 59 2.6 7.0 0.00 0.11 0.00 77 1013.8
20260507075218 59 53 2.6 7.0 0.00 0.11 0.00 75 1013.8
20260507074820 59 44 2.6 7.0 0.00 0.11 0.00 75 1014.0
20260507074718 59 27 2.6 7.0 0.00 0.11 0.00 76 1013.7
20260507074528 59 42 2.6 7.0 0.00 0.11 0.00 76 1013.9
20260507074418 59 59 2.6 7.0 0.00 0.11 0.00 76 1013.8
20260507074320 59 46 2.6 7.0 0.00 0.11 0.00 76 1013.8
20260507074218 59 47 2.6 7.0 0.00 0.11 0.00 75 1013.9
20260507074119 59 9 2.6 7.0 0.00 0.11 0.00 75 1013.9
20260507073920 59 35 2.6 7.0 0.00 0.11 0.00 75 1014.0
20260507073819 59 43 2.6 4.3 0.00 0.11 0.00 76 1013.8
20260507073719 59 28 2.6 5.2 0.00 0.11 0.00 77 1013.8
20260507073619 59 42 2.6 5.2 0.00 0.11 0.00 78 1013.9
20260507073528 59 42 2.6 5.2 0.00 0.11 0.00 79 1013.9
20260507073419 59 76 2.6 5.2 0.00 0.11 0.00 78 1013.8
20260507073320 59 81 2.6 5.2 0.00 0.11 0.00 77 1013.8
20260507073218 59 82 2.6 5.2 0.00 0.11 0.00 78 1013.9
20260507073120 58 59 2.6 5.2 0.00 0.11 0.00 78 1013.9
20260507073035 58 51 2.6 5.2 0.00 0.11 0.00 78 1013.9
20260507072920 58 45 2.6 5.2 0.00 0.11 0.00 78 1013.8
20260507072618 58 65 2.6 5.2 0.00 0.11 0.00 80 1013.8
20260507072529 58 59 2.6 5.2 0.00 0.11 0.00 80 1013.8
20260507072419 58 61 2.6 5.2 0.00 0.11 0.00 79 1013.7
20260507072319 57 62 2.6 5.2 0.00 0.11 0.00 79 1013.8
20260507072221 57 34 2.6 5.2 0.00 0.11 0.00 78 1013.7
20260507072038 58 63 2.6 4.3 0.00 0.11 0.00 77 1013.7
20260507071820 58 53 2.6 3.5 0.00 0.11 0.00 77 1013.7
20260507071718 58 41 1.7 3.5 0.00 0.11 0.00 77 1013.7
20260507071618 58 51 1.7 3.5 0.00 0.11 0.00 77 1013.7
20260507071530 58 65 1.7 3.5 0.00 0.11 0.00 76 1013.7
20260507071320 58 70 0.9 2.6 0.00 0.11 0.00 78 1013.7
20260507071119 58 72 0.9 2.6 0.00 0.11 0.00 77 1013.7
20260507071035 58 72 0.9 2.6 0.00 0.11 0.00 77 1013.6
20260507070920 58 70 0.0 2.6 0.00 0.11 0.00 78 1013.7
20260507070819 58 71 0.0 2.6 0.00 0.11 0.00 79 1013.6
20260507070718 58 73 0.0 2.6 0.00 0.11 0.00 79 1013.7
20260507070619 58 84 0.9 2.6 0.00 0.11 0.00 80 1013.7
20260507070529 58 86 0.9 2.6 0.00 0.11 0.00 81 1013.6
20260507070420 58 88 0.9 2.6 0.00 0.11 0.00 81 1013.6
20260507070318 57 88 0.9 2.6 0.00 0.11 0.00 80 1013.6
20260507070219 57 88 1.7 3.5 0.00 0.11 0.00 81 1013.6
20260507070120 57 88 1.7 3.5 0.00 0.11 0.00 81 1013.6
20260507070040 57 77 1.7 3.5 0.00 0.11 0.00 80 1013.7
20260507065919 57 68 1.7 3.5 0.00 0.11 0.00 81 1013.6
20260507065819 57 63 1.7 3.5 0.00 0.11 0.00 81 1013.6
20260507065718 57 60 1.7 3.5 0.00 0.11 0.00 81 1013.6
20260507065621 56 59 1.7 3.5 0.00 0.11 0.00 81 1013.6
20260507065418 56 57 1.7 3.5 0.00 0.11 0.00 81 1013.5
20260507065319 56 56 1.7 3.5 0.00 0.11 0.00 82 1013.6
20260507065120 56 65 1.7 3.5 0.00 0.11 0.00 82 1013.5
20260507065043 56 80 1.7 2.6 0.00 0.11 0.00 82 1013.6
20260507064918 56 92 1.7 2.6 0.00 0.11 0.00 82 1013.6
20260507064719 56 98 1.7 2.6 0.00 0.11 0.00 82 1013.6
20260507064619 56 107 1.7 2.6 0.00 0.11 0.00 82 1013.6
20260507064527 55 111 0.9 2.6 0.00 0.11 0.00 82 1013.6
20260507064319 55 134 0.9 2.6 0.00 0.11 0.00 82 1013.6
20260507064219 55 146 0.9 2.6 0.00 0.11 0.00 82 1013.6
20260507064118 55 150 0.9 2.6 0.00 0.11 0.00 82 1013.5
20260507064038 55 160 0.0 2.6 0.00 0.11 0.00 82 1013.7
20260507063920 55 167 0.0 2.6 0.00 0.11 0.00 83 1013.7
20260507063818 55 249 0.0 0.9 0.00 0.11 0.00 82 1013.7
20260507063621 55 249 0.0 0.9 0.00 0.11 0.00 81 1013.5
20260507063527 55 249 0.0 1.7 0.00 0.11 0.00 82 1013.5
20260507063219 54 249 0.0 1.7 0.00 0.11 0.00 85 1013.6
20260507063118 54 249 0.0 1.7 0.00 0.11 0.00 85 1013.5
20260507063036 54 249 0.0 1.7 0.00 0.11 0.00 86 1013.5
20260507062920 54 249 0.0 1.7 0.00 0.11 0.00 85 1013.5
20260507062818 53 249 0.0 1.7 0.00 0.11 0.00 87 1013.5
20260507062721 53 247 0.0 1.7 0.00 0.11 0.00 88 1013.4
20260507062528 53 245 0.0 0.0 0.00 0.11 0.00 87 1013.5
20260507062418 53 245 0.0 0.0 0.00 0.11 0.00 87 1013.5
20260507062320 52 245 0.0 0.0 0.00 0.11 0.00 88 1013.5
20260507062219 52 245 0.0 0.0 0.00 0.11 0.00 88 1013.5
20260507062120 52 245 0.0 0.0 0.00 0.11 0.00 89 1013.5
20260507062036 52 245 0.0 0.0 0.00 0.11 0.00 89 1013.5
20260507061920 52 245 0.0 0.9 0.00 0.11 0.00 90 1013.5
20260507061818 52 245 0.0 0.9 0.00 0.11 0.00 90 1013.5
20260507061720 51 245 0.0 0.9 0.00 0.11 0.00 91 1013.5
20260507061604 51 245 0.0 0.9 0.00 0.11 0.00 92 1013.5
20260507061409 51 245 0.0 1.7 0.00 0.11 0.00 92 1013.5
20260507061321 51 245 0.9 1.7 0.00 0.11 0.00 92 1013.5
20260507061219 50 245 0.9 2.6 0.00 0.11 0.00 92 1013.5
20260507061004 50 66 0.9 2.6 0.00 0.11 0.00 93 1013.5
20260507060907 50 66 0.9 2.6 0.00 0.11 0.00 93 1013.5
20260507060818 49 66 0.9 2.6 0.00 0.11 0.00 93 1013.4
20260507060721 49 66 0.9 2.6 0.00 0.11 0.00 93 1013.5
20260507060619 49 66 0.9 2.6 0.00 0.11 0.00 93 1013.5
20260507060527 49 66 0.9 2.6 0.00 0.11 0.00 93 1013.5
20260507060419 49 64 0.9 2.6 0.00 0.11 0.00 93 1013.4
20260507060219 49 64 0.9 1.7 0.00 0.11 0.00 93 1013.4
20260507060119 49 64 0.9 1.7 0.00 0.11 0.00 94 1013.4
20260507060040 49 64 0.9 1.7 0.00 0.11 0.00 94 1013.3
20260507055922 48 64 0.9 1.7 0.00 0.11 0.00 94 1013.4
20260507055822 48 65 0.0 1.7 0.00 0.11 0.00 95 1013.4
20260507055618 48 65 0.0 0.9 0.00 0.11 0.00 95 1013.4
20260507055528 48 65 0.0 0.9 0.00 0.11 0.00 95 1013.3
20260507055421 48 65 0.0 0.9 0.00 0.11 0.00 96 1013.3
20260507055318 48 65 0.0 0.9 0.00 0.11 0.00 96 1013.3
20260507055221 47 65 0.0 0.9 0.00 0.11 0.00 96 1013.3
20260507055119 47 65 0.0 0.9 0.00 0.11 0.00 96 1013.4
20260507055036 47 65 0.0 0.9 0.00 0.11 0.00 96 1013.3
20260507054820 47 65 0.0 0.9 0.00 0.11 0.00 96 1013.3
20260507054719 47 115 0.0 0.9 0.00 0.11 0.00 96 1013.2
20260507054619 47 115 0.0 0.9 0.00 0.11 0.00 96 1013.2
20260507054526 47 115 0.9 1.7 0.00 0.11 0.00 96 1013.2
20260507054421 46 115 0.9 1.7 0.00 0.11 0.00 96 1013.2
20260507054303 46 115 0.9 1.7 0.00 0.11 0.00 96 1013.2
20260507054202 46 115 0.9 1.7 0.00 0.11 0.00 96 1013.1
20260507054101 46 115 0.9 1.7 0.00 0.11 0.00 96 1013.2
20260507054002 46 115 0.9 1.7 0.00 0.11 0.00 96 1013.2
20260507053802 46 116 0.0 1.7 0.00 0.11 0.00 97 1013.1
20260507053703 45 116 0.0 1.7 0.00 0.11 0.00 97 1013.2
20260507053503 45 117 0.0 1.7 0.00 0.11 0.00 97 1013.1
20260507053301 45 196 0.0 0.9 0.00 0.11 0.00 97 1013.2
20260507053201 45 196 0.0 0.9 0.00 0.11 0.00 97 1013.1
20260507053104 44 196 0.0 0.9 0.00 0.11 0.00 97 1013.2
20260507053003 44 196 0.0 0.9 0.00 0.11 0.00 97 1013.2
20260507052901 44 196 0.0 0.9 0.00 0.11 0.00 96 1013.2
20260507052803 44 196 0.0 0.9 0.00 0.11 0.00 97 1013.0
20260507052703 44 196 0.0 0.9 0.00 0.11 0.00 96 1013.0
20260507052601 44 196 0.0 0.9 0.00 0.11 0.00 97 1013.2
20260507052502 44 198 0.0 0.9 0.00 0.11 0.00 96 1013.2
20260507052404 43 198 0.0 0.0 0.00 0.11 0.00 97 1013.1
20260507052301 43 198 0.0 0.0 0.00 0.11 0.00 96 1013.2
20260507052201 43 198 0.0 0.0 0.00 0.11 0.00 96 1013.0
20260507052004 42 198 0.0 0.0 0.00 0.11 0.00 96 1013.1
20260507051901 42 198 0.0 0.0 0.00 0.11 0.00 96 1013.1
20260507051801 42 198 0.0 0.0 0.00 0.11 0.00 96 1013.0
20260507051703 42 198 0.0 0.0 0.00 0.11 0.00 96 1013.0
20260507051601 42 198 0.0 0.0 0.00 0.11 0.00 96 1013.1
20260507051501 42 198 0.0 0.0 0.00 0.11 0.00 96 1012.9
20260507051403 42 198 0.0 0.0 0.00 0.11 0.00 96 1013.0
20260507051303 41 198 0.0 0.0 0.00 0.11 0.00 96 1013.0
20260507051201 41 198 0.0 0.0 0.00 0.11 0.00 96 1012.9
20260507050902 41 198 0.0 0.0 0.00 0.11 0.00 96 1013.0
20260507050801 41 198 0.0 1.7 0.00 0.11 0.00 96 1012.9
20260507050701 40 198 0.0 1.7 0.00 0.11 0.00 96 1013.0
20260507050604 40 198 0.9 1.7 0.00 0.11 0.00 96 1012.9
20260507050501 40 198 0.9 1.7 0.00 0.11 0.00 96 1012.8
20260507050303 40 198 0.9 1.7 0.00 0.11 0.00 96 1013.0
20260507050203 40 198 0.9 1.7 0.00 0.11 0.00 95 1012.9
20260507050006 39 198 0.9 1.7 0.00 0.11 0.00 95 1013.0
20260507045903 39 198 0.9 1.7 0.00 0.12 0.00 95 1012.9
20260507045801 39 198 0.0 1.7 0.00 0.12 0.00 95 1012.9
20260507045701 39 198 0.0 1.7 0.00 0.12 0.00 95 1012.8
20260507045603 39 198 0.0 1.7 0.00 0.12 0.00 95 1012.8
20260507045502 39 198 0.0 1.7 0.00 0.12 0.00 95 1012.9
20260507045401 39 198 0.0 1.7 0.00 0.12 0.00 95 1012.8
20260507045301 38 198 0.0 0.0 0.00 0.12 0.00 95 1012.8
20260507045204 38 198 0.0 0.0 0.00 0.12 0.00 95 1012.8
20260507045002 38 198 0.0 0.0 0.00 0.12 0.00 95 1012.7
20260507044901 38 198 0.0 0.0 0.00 0.12 0.00 95 1012.7
20260507044804 38 198 0.0 0.0 0.00 0.12 0.00 95 1012.7
20260507044601 38 198 0.0 0.0 0.00 0.12 0.00 95 1012.7
20260507044502 38 198 0.0 0.0 0.00 0.12 0.00 95 1012.8
20260507044404 38 198 0.0 0.0 0.00 0.12 0.00 95 1012.7
20260507044301 38 198 0.0 0.0 0.00 0.12 0.00 95 1012.8
20260507044201 38 198 0.0 0.0 0.00 0.12 0.00 95 1012.6
20260507044103 38 198 0.0 0.0 0.00 0.12 0.00 95 1012.7
20260507044002 38 198 0.0 0.0 0.00 0.12 0.00 95 1012.6
20260507043902 38 198 0.0 0.0 0.00 0.12 0.00 95 1012.6
20260507043704 38 198 0.0 0.0 0.00 0.12 0.00 95 1012.6
20260507043602 38 198 0.0 0.0 0.00 0.12 0.00 95 1012.5
20260507043403 38 198 0.0 0.0 0.00 0.12 0.00 95 1012.6
20260507043202 38 198 0.0 0.0 0.00 0.12 0.00 95 1012.6
20260507043101 38 198 0.0 0.0 0.00 0.12 0.00 95 1012.6
20260507042901 38 198 0.0 0.0 0.00 0.12 0.00 95 1012.6
20260507042801 38 198 0.0 0.0 0.00 0.12 0.00 95 1012.5
20260507042701 38 198 0.0 0.0 0.00 0.12 0.00 95 1012.6
20260507042501 38 198 0.0 0.0 0.00 0.12 0.00 95 1012.4
20260507042401 38 198 0.0 0.0 0.00 0.12 0.00 95 1012.5
20260507042204 38 198 0.0 0.0 0.00 0.12 0.00 95 1012.4
20260507042002 38 198 0.0 0.0 0.00 0.12 0.00 95 1012.4
20260507041901 38 198 0.0 0.0 0.00 0.12 0.00 95 1012.4
20260507041803 38 198 0.0 0.0 0.00 0.12 0.00 95 1012.4
20260507041701 38 198 0.0 0.0 0.00 0.12 0.00 95 1012.4
20260507041601 38 198 0.0 0.0 0.00 0.12 0.00 95 1012.3
20260507041501 38 198 0.0 0.0 0.00 0.12 0.00 95 1012.4
20260507041404 38 198 0.0 0.0 0.00 0.12 0.00 95 1012.3
20260507041301 38 198 0.0 0.0 0.00 0.12 0.00 95 1012.3
20260507041202 38 198 0.0 0.0 0.00 0.12 0.00 95 1012.3
20260507041101 38 198 0.0 0.0 0.00 0.12 0.00 95 1012.4
20260507041005 38 198 0.0 0.0 0.00 0.12 0.00 95 1012.3
20260507040902 38 198 0.0 0.0 0.00 0.12 0.00 95 1012.2
20260507040801 38 198 0.0 0.0 0.00 0.12 0.00 95 1012.3
20260507040703 38 198 0.0 0.0 0.00 0.12 0.00 95 1012.3
20260507040501 38 198 0.0 0.0 0.00 0.12 0.00 95 1012.3
20260507040403 38 198 0.0 0.0 0.00 0.12 0.00 95 1012.3
20260507040202 38 198 0.0 0.0 0.00 0.12 0.00 95 1012.3
20260507040008 38 198 0.0 0.0 0.00 0.12 0.00 95 1012.3
20260507035903 38 198 0.0 0.0 0.00 0.17 0.00 95 1012.4
20260507035702 38 198 0.0 0.0 0.00 0.17 0.00 95 1012.2
20260507035602 38 198 0.0 0.0 0.00 0.17 0.00 95 1012.4
20260507035502 38 198 0.0 0.0 0.00 0.17 0.00 95 1012.4
20260507035404 38 198 0.0 0.0 0.00 0.17 0.00 95 1012.3
20260507035203 38 198 0.0 0.0 0.00 0.17 0.00 95 1012.4
20260507035101 38 198 0.0 0.0 0.00 0.17 0.00 95 1012.3
20260507035002 38 198 0.0 0.0 0.00 0.17 0.00 95 1012.3
20260507034902 38 198 0.0 0.0 0.00 0.17 0.00 95 1012.4
20260507034804 38 198 0.0 0.0 0.00 0.17 0.00 95 1012.3
20260507034702 38 198 0.0 0.0 0.00 0.17 0.00 95 1012.3
20260507034601 38 197 0.0 0.0 0.00 0.17 0.00 95 1012.3
20260507034502 38 197 0.0 0.0 0.00 0.17 0.00 95 1012.2
20260507034404 38 197 0.0 0.0 0.00 0.17 0.00 95 1012.4
20260507034301 38 197 0.0 0.0 0.00 0.17 0.00 95 1012.1
20260507034203 38 197 0.0 0.0 0.00 0.17 0.00 95 1012.1
20260507034102 38 197 0.0 0.0 0.00 0.17 0.00 95 1012.1
20260507034002 38 197 0.0 0.0 0.00 0.17 0.00 95 1012.2
20260507033803 38 197 0.0 0.0 0.00 0.17 0.00 95 1012.3
20260507033702 38 197 0.0 0.0 0.00 0.17 0.00 95 1012.2
20260507033501 38 197 0.0 0.0 0.00 0.17 0.00 95 1012.2
20260507033404 38 197 0.0 0.0 0.00 0.17 0.00 95 1012.2
20260507033301 38 197 0.0 0.0 0.00 0.17 0.00 95 1012.3
20260507033103 38 197 0.0 0.0 0.00 0.17 0.00 95 1012.1
20260507033002 38 197 0.0 0.0 0.00 0.17 0.00 95 1012.1
20260507032901 38 197 0.0 0.0 0.00 0.17 0.00 95 1012.2
20260507032801 38 197 0.0 0.0 0.00 0.17 0.00 95 1012.1
20260507032704 38 197 0.0 0.0 0.00 0.17 0.00 95 1012.3
20260507032601 38 197 0.0 0.0 0.00 0.17 0.00 95 1012.2
20260507032502 38 197 0.0 0.0 0.00 0.17 0.00 95 1012.1
20260507032403 38 197 0.0 0.0 0.00 0.17 0.00 95 1012.1
20260507032102 38 197 0.0 0.0 0.00 0.17 0.00 95 1012.1
20260507031903 38 196 0.0 0.0 0.00 0.17 0.00 95 1012.1
20260507031703 39 196 0.0 0.0 0.00 0.17 0.00 95 1012.1
20260507031602 39 196 0.0 0.0 0.00 0.17 0.00 95 1012.1
20260507031501 39 196 0.0 0.0 0.00 0.17 0.00 95 1012.1
20260507031403 39 196 0.0 0.0 0.00 0.17 0.00 95 1012.2
20260507031302 38 196 0.0 0.0 0.00 0.17 0.00 95 1012.3
20260507031203 38 196 0.0 0.0 0.00 0.17 0.00 95 1012.3
20260507031101 39 196 0.0 0.0 0.00 0.17 0.00 95 1012.2
20260507031002 38 196 0.0 0.0 0.00 0.17 0.00 95 1012.0
20260507030901 39 196 0.0 0.0 0.00 0.17 0.00 95 1012.0
20260507030803 39 196 0.0 0.0 0.00 0.17 0.00 95 1012.2
20260507030601 39 196 0.0 0.0 0.00 0.17 0.00 95 1012.2
20260507030501 39 196 0.0 0.0 0.00 0.17 0.00 95 1012.1
20260507030302 39 196 0.0 0.0 0.00 0.17 0.00 95 1012.3
20260507030201 39 196 0.0 0.0 0.00 0.17 0.00 95 1012.2
20260507030101 39 196 0.0 0.0 0.00 0.17 0.00 95 1012.3
20260507030008 39 196 0.0 0.0 0.00 0.17 0.00 95 1012.3
20260507025901 39 196 0.0 0.0 0.00 0.30 0.00 95 1012.3
20260507025801 39 196 0.0 0.0 0.00 0.30 0.00 95 1012.2
20260507025702 39 196 0.0 0.0 0.00 0.30 0.00 94 1012.2
20260507025502 39 196 0.0 0.0 0.00 0.30 0.00 94 1012.2
20260507025403 39 196 0.0 0.0 0.00 0.30 0.00 94 1012.1
20260507025301 39 196 0.0 0.0 0.00 0.30 0.00 94 1012.2
20260507025203 39 196 0.0 0.0 0.00 0.30 0.00 95 1012.1
20260507025101 39 196 0.0 0.0 0.00 0.30 0.00 95 1012.2
20260507024901 39 196 0.0 0.0 0.00 0.30 0.00 95 1012.2
20260507024702 39 196 0.0 0.0 0.00 0.30 0.00 95 1012.2
20260507024601 39 196 0.0 0.0 0.00 0.30 0.00 95 1012.1
20260507024404 39 196 0.0 0.0 0.00 0.30 0.00 95 1012.1
20260507024302 39 196 0.0 0.0 0.00 0.30 0.00 95 1012.1
20260507024202 39 196 0.0 0.0 0.00 0.30 0.00 95 1012.1
20260507024103 39 196 0.0 0.0 0.00 0.30 0.00 94 1012.1
20260507024004 39 196 0.0 0.0 0.00 0.30 0.00 95 1012.1
20260507023801 39 196 0.0 0.0 0.00 0.30 0.00 95 1012.2
20260507023601 39 196 0.0 0.0 0.00 0.30 0.00 95 1012.1
20260507023503 39 196 0.0 0.0 0.00 0.30 0.00 95 1012.1
20260507022801 39 196 0.0 0.0 0.00 0.30 0.00 95 1012.2
20260507022703 39 196 0.0 0.0 0.00 0.30 0.00 95 1012.1
20260507022501 39 196 0.0 0.0 0.00 0.30 0.00 95 1012.2
20260507022201 39 196 0.0 0.9 0.00 0.30 0.00 94 1012.0
20260507022101 39 196 0.0 0.9 0.00 0.30 0.00 94 1012.1
20260507022004 39 196 0.0 0.9 0.00 0.30 0.00 94 1012.0
20260507021901 39 196 0.0 0.9 0.00 0.30 0.00 94 1012.0
20260507021801 39 197 0.0 0.9 0.00 0.30 0.00 95 1012.1
20260507021703 39 197 0.0 1.7 0.00 0.30 0.00 95 1012.0
20260507021603 39 196 0.9 1.7 0.00 0.30 0.00 95 1011.9
20260507021502 39 197 0.9 1.7 0.00 0.30 0.00 95 1012.0
20260507021401 39 197 0.9 1.7 0.00 0.30 0.00 95 1012.0
20260507021303 39 197 0.9 1.7 0.00 0.30 0.00 95 1011.9
20260507021004 39 197 0.9 1.7 0.00 0.30 0.00 94 1012.0
20260507020903 39 197 0.9 1.7 0.00 0.30 0.00 94 1012.0
20260507020701 39 197 0.9 1.7 0.00 0.30 0.00 94 1011.9
20260507020603 39 197 0.9 1.7 0.00 0.30 0.00 94 1012.0
20260507020501 39 197 0.0 1.7 0.00 0.30 0.00 94 1011.9
20260507020301 40 197 0.0 0.9 0.00 0.30 0.00 95 1012.0
20260507020201 40 197 0.0 0.9 0.00 0.30 0.00 95 1011.9
20260507020101 40 196 0.0 0.9 0.00 0.30 0.00 95 1012.0
20260507020009 40 196 0.0 0.9 0.00 0.30 0.00 95 1012.0
20260507015901 40 197 0.0 0.9 0.00 0.31 0.00 95 1012.0
20260507015801 40 197 0.0 0.9 0.00 0.31 0.00 95 1012.0
20260507015702 40 196 0.0 0.9 0.00 0.31 0.00 95 1012.0
20260507015501 40 197 0.0 0.9 0.00 0.31 0.00 94 1012.0
20260507015306 39 196 0.0 0.9 0.00 0.31 0.00 94 1012.0
20260507015200 39 197 0.0 0.9 0.00 0.31 0.00 94 1011.9
20260507015101 39 196 0.0 0.9 0.00 0.31 0.00 94 1011.9
20260507015002 39 197 0.0 0.9 0.00 0.31 0.00 94 1011.9
20260507014904 39 197 0.0 0.9 0.00 0.31 0.00 94 1011.8
20260507014701 39 197 0.0 0.9 0.00 0.31 0.00 94 1012.0
20260507014603 39 196 0.0 0.9 0.00 0.31 0.00 94 1011.9
20260507014501 39 196 0.0 0.9 0.00 0.31 0.00 94 1011.9
20260507014400 39 197 0.0 0.9 0.00 0.31 0.00 94 1011.8
20260507014204 39 197 0.0 0.9 0.00 0.31 0.00 94 1012.0
20260507014100 39 197 0.0 1.7 0.00 0.31 0.00 94 1012.0
20260507014001 40 197 0.0 1.7 0.00 0.31 0.00 94 1011.9
20260507013903 40 197 0.0 1.7 0.00 0.31 0.00 94 1011.9
20260507013802 40 197 0.0 1.7 0.00 0.31 0.00 94 1011.9
20260507013700 40 197 0.0 1.7 0.00 0.31 0.00 94 1011.9
20260507013601 40 197 0.0 1.7 0.00 0.31 0.00 94 1011.9
20260507013501 39 197 0.0 1.7 0.00 0.31 0.00 94 1012.0
20260507013402 39 197 0.0 1.7 0.00 0.31 0.00 94 1012.0
20260507013202 39 197 0.0 1.7 0.00 0.31 0.00 94 1012.0
20260507013101 39 196 0.0 1.7 0.00 0.31 0.00 94 1012.0
20260507013001 39 196 0.0 1.7 0.00 0.31 0.00 94 1011.9
20260507012903 39 196 0.0 1.7 0.00 0.31 0.00 94 1012.0
20260507012800 39 196 0.0 1.7 0.00 0.31 0.00 94 1012.0
20260507012702 39 196 0.0 1.7 0.00 0.31 0.00 94 1012.0
20260507012601 40 197 0.0 1.7 0.00 0.31 0.00 94 1012.1
20260507012401 39 196 0.0 1.7 0.00 0.31 0.00 94 1012.1
20260507012001 39 196 0.0 0.0 0.00 0.31 0.00 94 1012.1
20260507011903 39 196 0.0 0.0 0.00 0.31 0.00 94 1012.1
20260507011800 40 196 0.0 0.0 0.00 0.31 0.00 94 1012.2
20260507011700 40 196 0.0 0.0 0.00 0.31 0.00 94 1012.1
20260507011601 40 196 0.0 0.0 0.00 0.31 0.00 94 1012.1
20260507011504 40 196 0.0 0.0 0.00 0.31 0.00 94 1012.2
20260507011300 40 196 0.0 0.0 0.00 0.31 0.00 94 1012.1
20260507011202 40 196 0.0 0.0 0.00 0.31 0.00 94 1012.1
20260507011001 40 196 0.0 0.0 0.00 0.31 0.00 94 1012.0
20260507010901 40 196 0.0 0.0 0.00 0.31 0.00 94 1012.1
20260507010601 40 196 0.0 0.0 0.00 0.31 0.00 94 1012.0
20260507010500 40 196 0.0 0.0 0.00 0.31 0.00 94 1012.1
20260507010403 40 196 0.0 0.0 0.00 0.31 0.00 94 1012.0
20260507010300 40 196 0.0 0.0 0.00 0.31 0.00 94 1012.1
20260507010200 40 196 0.0 0.0 0.00 0.31 0.00 94 1012.0
20260507010101 40 196 0.0 0.0 0.00 0.31 0.00 94 1011.9
20260507005900 40 196 0.0 0.0 0.00 0.31 0.00 94 1012.0
20260507005802 40 196 0.0 0.0 0.00 0.31 0.00 94 1012.0
20260507005702 40 196 0.0 0.0 0.00 0.31 0.00 94 1012.0
20260507005601 40 196 0.0 0.0 0.00 0.31 0.00 94 1012.0
20260507005501 40 196 0.0 0.0 0.00 0.31 0.00 94 1012.0
20260507005403 40 196 0.0 0.0 0.00 0.31 0.00 94 1012.1
20260507005201 40 196 0.0 0.0 0.00 0.31 0.00 94 1012.0
20260507005102 40 196 0.0 0.0 0.00 0.31 0.00 94 1012.0
20260507005003 40 196 0.0 0.0 0.00 0.31 0.00 94 1012.2
20260507004800 40 196 0.0 0.0 0.00 0.31 0.00 94 1012.0
20260507004703 40 196 0.0 0.0 0.00 0.31 0.00 94 1012.1
20260507004601 40 196 0.0 0.0 0.00 0.31 0.00 94 1012.1
20260507004527 40 196 0.0 0.0 0.00 0.31 0.00 94 1012.1
20260507004418 40 196 0.0 0.0 0.00 0.31 0.00 94 1012.0
20260507004319 40 196 0.0 0.0 0.00 0.31 0.00 94 1012.1
20260507004217 40 196 0.0 0.0 0.00 0.31 0.00 94 1012.0
20260507004119 40 196 0.0 0.0 0.00 0.31 0.00 94 1012.0
20260507004041 40 196 0.0 0.0 0.00 0.31 0.00 94 1012.1
20260507003917 40 196 0.0 0.0 0.00 0.31 0.00 94 1012.1
20260507003817 40 196 0.0 0.0 0.00 0.31 0.00 94 1012.1
20260507003720 40 196 0.0 0.0 0.00 0.31 0.00 94 1012.1
20260507003618 40 196 0.0 0.0 0.00 0.31 0.00 94 1012.1
20260507003527 40 196 0.0 0.0 0.00 0.31 0.00 93 1012.0
20260507003418 40 196 0.0 0.0 0.00 0.31 0.00 93 1012.1
20260507003318 40 196 0.0 0.0 0.00 0.31 0.00 93 1012.0
20260507003217 40 197 0.0 0.0 0.00 0.31 0.00 93 1012.1
20260507003128 40 197 0.0 0.0 0.00 0.31 0.00 93 1012.1
20260507002917 40 197 0.0 0.0 0.00 0.31 0.00 93 1012.1
20260507002818 40 197 0.0 0.0 0.00 0.31 0.00 93 1012.1
20260507002720 40 197 0.0 0.0 0.00 0.31 0.00 93 1012.1
20260507002527 40 197 0.0 0.0 0.00 0.31 0.00 93 1012.1
20260507002417 40 197 0.0 0.0 0.00 0.31 0.00 93 1012.1
20260507002218 40 197 0.0 0.0 0.00 0.31 0.00 93 1012.0
20260507002119 40 197 0.0 0.0 0.00 0.31 0.00 93 1012.1
20260507002035 40 197 0.0 0.0 0.00 0.31 0.00 93 1012.1
20260507001817 40 197 0.0 0.0 0.00 0.31 0.00 93 1012.0
20260507001720 40 197 0.0 0.0 0.00 0.31 0.00 93 1012.0
20260507001617 40 197 0.0 0.0 0.00 0.31 0.00 93 1012.1
20260507001539 40 197 0.0 0.0 0.00 0.31 0.00 93 1012.0
20260507001319 40 197 0.0 0.0 0.00 0.31 0.00 93 1012.1
20260507001036 40 197 0.0 0.0 0.00 0.31 0.00 93 1012.0
20260507000917 41 197 0.0 0.0 0.00 0.31 0.00 93 1012.0
20260507000817 41 197 0.0 0.0 0.00 0.31 0.00 93 1012.1
20260507000720 41 197 0.0 0.0 0.00 0.31 0.00 93 1012.0
20260507000617 41 197 0.0 0.0 0.00 0.31 0.00 93 1012.1
20260507000527 41 197 0.0 0.0 0.00 0.31 0.00 93 1012.1
20260507000321 41 197 0.0 0.0 0.00 0.31 0.00 93 1012.1
20260507000219 41 197 0.0 0.0 0.00 0.31 0.00 93 1012.2
20260507000124 41 197 0.0 0.0 0.00 0.31 0.00 93 1012.1
20260506235917 41 196 0.0 0.0 0.00 0.31 0.00 93 1012.1
20260506235819 41 197 0.0 0.0 0.00 0.31 0.00 93 1012.1
20260506235618 41 197 0.0 0.0 0.00 0.31 0.00 93 1012.1
20260506235525 41 197 0.0 0.0 0.00 0.31 0.00 93 1012.1
20260506235420 41 197 0.0 0.0 0.00 0.31 0.00 93 1012.0
20260506235219 41 197 0.0 0.0 0.00 0.31 0.00 93 1011.9
20260506235117 41 197 0.0 0.0 0.00 0.31 0.00 93 1011.9
20260506235038 41 197 0.0 0.0 0.00 0.31 0.00 93 1012.0
20260506234917 41 197 0.0 0.0 0.00 0.31 0.00 93 1011.9
20260506234819 41 197 0.0 0.0 0.00 0.31 0.00 93 1011.9
20260506234617 41 197 0.0 0.0 0.00 0.31 0.00 93 1011.9
20260506234525 41 197 0.0 0.0 0.00 0.31 0.00 93 1011.9
20260506234420 41 197 0.0 0.0 0.00 0.31 0.00 93 1012.0
20260506234117 41 197 0.0 0.0 0.00 0.31 0.00 93 1011.9
20260506233917 41 197 0.0 0.0 0.00 0.31 0.00 93 1012.0
20260506233819 41 197 0.0 0.0 0.00 0.31 0.00 93 1011.9
20260506233718 41 197 0.0 0.0 0.00 0.31 0.00 93 1012.0
20260506233617 41 197 0.0 0.0 0.00 0.31 0.00 93 1011.8
20260506233525 41 197 0.0 0.0 0.00 0.31 0.00 93 1011.9
20260506233420 41 197 0.0 0.0 0.00 0.31 0.00 93 1011.9
20260506233317 41 197 0.0 0.0 0.00 0.31 0.00 93 1011.9
20260506233219 41 197 0.0 0.0 0.00 0.31 0.00 93 1011.8
20260506233117 41 197 0.0 0.0 0.00 0.31 0.00 92 1011.9
20260506233035 41 197 0.0 0.0 0.00 0.31 0.00 92 1011.8
20260506232919 41 197 0.0 0.0 0.00 0.31 0.00 92 1011.8
20260506232819 41 197 0.0 0.0 0.00 0.31 0.00 92 1011.7
20260506232719 41 197 0.0 0.0 0.00 0.31 0.00 92 1011.8
20260506232618 41 197 0.0 0.0 0.00 0.31 0.00 92 1011.8
20260506232525 41 197 0.0 0.0 0.00 0.31 0.00 92 1011.8
20260506232420 41 197 0.0 0.0 0.00 0.31 0.00 92 1011.8
20260506232317 41 197 0.0 0.0 0.00 0.31 0.00 92 1011.8
20260506232035 41 197 0.0 0.0 0.00 0.31 0.00 92 1011.8
20260506231917 41 197 0.0 0.0 0.00 0.31 0.00 92 1011.8
20260506231819 41 197 0.0 0.0 0.00 0.31 0.00 92 1011.7
20260506231718 41 197 0.0 0.0 0.00 0.31 0.00 92 1011.7
20260506231617 41 197 0.0 0.0 0.00 0.31 0.00 92 1011.7
20260506231420 41 197 0.0 0.0 0.00 0.31 0.00 92 1011.6
20260506231319 41 197 0.0 0.0 0.00 0.31 0.00 92 1011.7
20260506231218 41 197 0.0 0.0 0.00 0.31 0.00 92 1011.5
20260506231117 41 197 0.0 0.0 0.00 0.31 0.00 92 1011.6
20260506231035 41 197 0.0 0.0 0.00 0.31 0.00 92 1011.7
20260506230919 41 197 0.0 0.0 0.00 0.31 0.00 92 1011.5
20260506230817 41 197 0.0 0.0 0.00 0.31 0.00 92 1011.5
20260506230719 41 197 0.0 0.0 0.00 0.31 0.00 92 1011.5
20260506230617 41 197 0.0 0.0 0.00 0.31 0.00 93 1011.5
20260506230317 41 197 0.0 0.0 0.00 0.31 0.00 92 1011.4
20260506230218 41 197 0.0 0.0 0.00 0.31 0.00 92 1011.4
20260506230126 41 197 0.0 0.0 0.00 0.31 0.00 92 1011.5
20260506225920 41 197 0.9 3.5 0.00 0.31 0.00 92 1011.5
20260506225823 41 197 0.9 3.5 0.00 0.31 0.00 92 1011.5
20260506225720 41 197 0.9 3.5 0.00 0.31 0.00 92 1011.4
20260506225528 41 197 0.9 3.5 0.00 0.31 0.00 92 1011.4
20260506225421 42 197 0.9 3.5 0.00 0.31 0.00 92 1011.4
20260506225320 42 197 0.9 3.5 0.00 0.31 0.00 92 1011.4
20260506225222 42 196 0.9 3.5 0.00 0.31 0.00 92 1011.3
20260506225122 42 196 0.9 3.5 0.00 0.31 0.00 92 1011.4
20260506224921 42 197 0.0 2.6 0.00 0.31 0.00 92 1011.4
20260506224823 42 197 0.0 1.7 0.00 0.31 0.00 92 1011.3
20260506224620 42 197 0.0 1.7 0.00 0.31 0.00 91 1011.4
20260506224528 42 197 0.0 1.7 0.00 0.31 0.00 91 1011.4
20260506224423 42 197 0.0 1.7 0.00 0.31 0.00 92 1011.3
20260506224220 42 197 0.9 1.7 0.00 0.31 0.00 92 1011.4
20260506224121 42 197 0.9 2.6 0.00 0.31 0.00 92 1011.5
20260506224037 42 197 0.9 2.6 0.00 0.31 0.00 92 1011.4
20260506223922 42 197 0.9 2.6 0.00 0.31 0.00 92 1011.3
20260506223720 42 197 0.9 2.6 0.00 0.31 0.00 92 1011.5
20260506223621 42 197 0.9 2.6 0.00 0.31 0.00 92 1011.3
20260506223530 42 197 0.9 2.6 0.00 0.31 0.00 92 1011.3
20260506223420 42 197 0.9 2.6 0.00 0.31 0.00 92 1011.4
20260506223037 42 198 0.0 0.9 0.00 0.31 0.00 91 1011.3
20260506222922 42 198 0.0 0.9 0.00 0.31 0.00 91 1011.3
20260506222821 42 198 0.9 1.7 0.00 0.31 0.00 91 1011.3
20260506222720 42 198 0.9 2.6 0.00 0.31 0.00 91 1011.2
20260506222620 42 198 0.9 2.6 0.00 0.31 0.00 91 1011.4
20260506222530 42 198 0.9 2.6 0.00 0.31 0.00 91 1011.4
20260506222421 42 198 0.9 2.6 0.00 0.31 0.00 91 1011.3
20260506222322 42 198 0.9 2.6 0.00 0.31 0.00 91 1011.3
20260506222220 42 198 0.9 2.6 0.00 0.31 0.00 91 1011.3
20260506222121 42 198 0.9 2.6 0.00 0.31 0.00 91 1011.3
20260506222040 42 198 0.9 2.6 0.00 0.31 0.00 91 1011.2
20260506221922 42 198 0.9 2.6 0.00 0.31 0.00 91 1011.3
20260506221821 43 198 0.9 2.6 0.00 0.31 0.00 91 1011.3
20260506221721 43 198 0.0 2.6 0.00 0.31 0.00 91 1011.3
20260506221531 43 198 0.0 2.6 0.00 0.31 0.00 91 1011.2
20260506221420 43 198 0.0 2.6 0.00 0.31 0.00 91 1011.4
20260506221220 43 198 0.0 2.6 0.00 0.31 0.00 91 1011.3
20260506221121 43 198 0.0 1.7 0.00 0.31 0.00 91 1011.5
20260506221037 43 198 0.0 0.9 0.00 0.31 0.00 91 1011.3
20260506220922 43 198 0.0 0.9 0.00 0.31 0.00 91 1011.4
20260506220822 43 198 0.0 0.9 0.00 0.31 0.00 91 1011.3
20260506220720 43 198 0.0 0.9 0.00 0.31 0.00 91 1011.3
20260506220532 43 198 0.0 1.7 0.00 0.31 0.00 91 1011.3
20260506220422 43 198 0.0 1.7 0.00 0.31 0.00 91 1011.3
20260506220222 43 198 0.0 1.7 0.00 0.31 0.00 91 1011.4
20260506220044 43 198 0.9 1.7 0.00 0.31 0.00 90 1011.3
20260506215921 43 198 0.9 1.7 0.00 0.31 0.31 90 1011.3
20260506215822 43 198 0.0 1.7 0.00 0.31 0.31 90 1011.4
20260506215720 43 198 0.0 1.7 0.00 0.31 0.31 90 1011.3
20260506215622 43 198 0.0 0.9 0.00 0.31 0.31 90 1011.3
20260506215529 43 198 0.0 0.9 0.00 0.31 0.31 91 1011.2
20260506215421 43 198 0.0 0.9 0.00 0.31 0.31 91 1011.1
20260506215320 43 198 0.0 1.7 0.00 0.31 0.31 91 1011.3
20260506215120 43 198 0.9 2.6 0.00 0.31 0.31 91 1011.3
20260506215042 43 198 0.0 2.6 0.00 0.31 0.31 91 1011.2
20260506214921 43 198 0.9 2.6 0.00 0.31 0.31 91 1011.3
20260506214720 43 198 0.9 3.5 0.00 0.31 0.31 91 1011.2
20260506214622 43 198 0.9 3.5 0.00 0.31 0.31 90 1011.2
20260506214529 43 198 1.7 3.5 0.00 0.31 0.31 90 1011.2
20260506214421 43 198 1.7 3.5 0.00 0.31 0.31 90 1011.3
20260506214320 43 198 1.7 3.5 0.00 0.31 0.31 90 1011.2
20260506214223 43 198 1.7 3.5 0.00 0.31 0.31 90 1011.2
20260506214120 43 198 1.7 3.5 0.00 0.31 0.31 90 1011.2
20260506214039 43 198 1.7 3.5 0.00 0.31 0.31 90 1011.3
20260506213920 44 198 1.7 3.5 0.00 0.31 0.31 90 1011.2
20260506213822 44 199 0.9 3.5 0.00 0.31 0.31 90 1011.3
20260506213622 44 199 0.9 2.6 0.00 0.31 0.31 90 1011.2
20260506213529 44 199 0.9 2.6 0.00 0.31 0.31 90 1011.2
20260506213421 44 198 0.9 3.5 0.00 0.31 0.31 89 1011.1
20260506213321 44 198 0.9 3.5 0.00 0.31 0.31 89 1011.2
20260506213120 44 198 0.9 3.5 0.00 0.31 0.31 89 1011.2
20260506213039 44 198 0.9 3.5 0.00 0.31 0.31 89 1011.3
20260506212920 44 198 0.9 3.5 0.00 0.31 0.31 89 1011.2
20260506212822 44 198 0.9 3.5 0.00 0.31 0.31 89 1011.2
20260506212622 44 198 0.9 3.5 0.00 0.31 0.31 89 1011.2
20260506212530 44 198 0.9 2.6 0.00 0.31 0.31 89 1011.2
20260506212420 44 198 0.9 2.6 0.00 0.31 0.31 89 1011.2
20260506212320 45 198 0.9 2.6 0.00 0.31 0.31 89 1011.3
20260506212222 45 199 0.9 2.6 0.00 0.31 0.31 89 1011.2
20260506212121 45 199 0.9 2.6 0.00 0.31 0.31 89 1011.2
20260506212039 45 199 0.9 2.6 0.00 0.31 0.31 89 1011.1
20260506211822 45 199 0.9 2.6 0.00 0.31 0.31 88 1011.1
20260506211622 45 203 0.0 0.9 0.00 0.31 0.31 88 1011.1
20260506211530 45 203 0.0 0.9 0.00 0.31 0.31 88 1011.0
20260506211420 45 203 0.0 0.9 0.00 0.31 0.31 88 1011.1
20260506211321 45 203 0.0 1.7 0.00 0.31 0.31 88 1011.1
20260506211120 45 203 0.0 1.7 0.00 0.31 0.31 88 1011.0
20260506211042 45 203 0.0 1.7 0.00 0.31 0.31 88 1011.1
20260506210920 46 203 0.0 1.7 0.00 0.31 0.31 88 1011.0
20260506210822 46 203 0.0 1.7 0.00 0.31 0.31 88 1011.1
20260506210721 46 203 0.0 1.7 0.00 0.31 0.31 88 1011.1
20260506210622 46 203 0.0 1.7 0.00 0.31 0.31 88 1011.2
20260506210530 46 203 0.0 1.7 0.00 0.31 0.31 87 1011.1
20260506210421 46 203 0.0 1.7 0.00 0.31 0.31 87 1011.2
20260506210320 46 203 0.0 1.7 0.00 0.31 0.31 87 1011.1
20260506210223 46 203 0.0 1.7 0.00 0.31 0.31 87 1011.1
20260506210129 46 203 0.0 1.7 0.00 0.31 0.31 87 1011.1
20260506205923 46 203 0.0 1.7 0.00 0.31 0.31 87 1011.1
20260506205819 46 203 0.0 1.7 0.00 0.31 0.31 87 1011.1
20260506205722 46 203 0.0 1.7 0.00 0.31 0.31 87 1011.2
20260506205619 46 203 0.0 0.9 0.00 0.31 0.31 87 1011.1
20260506205529 46 203 0.0 0.9 0.00 0.31 0.31 87 1011.1
20260506205419 47 203 0.0 0.9 0.00 0.31 0.31 87 1011.0
20260506205321 47 203 0.0 0.9 0.00 0.31 0.31 87 1011.2